Latitude: N 50° 09' 49" Longitude: W 05° 11' 53" Elevation: 168m ASL

There are 19 visitors online

Adverts

<- Previous Day | Today | Next Day ->

All Data for 13 January 2019

Time
A - D
Temp
A - D
Dew Point
A - D
Humidity
A - D
Pressure
A - D
Wind
A - D
Wind Dir Gust
A - D
Rain Rate
A - D
Rain Total
00:00 9.2 9.1 99 1026.6 6.9 SW 15.9 0.0 0.0
00:01 9.2 9.1 99 1026.7 6.9 SW 15.9 0.0 0.0
00:02 9.2 9.1 99 1026.5 6.9 SW 15.9 0.0 0.0
00:03 9.2 9.1 99 1026.8 6.9 SW 15.9 0.0 0.0
00:04 9.2 9.1 99 1026.6 6.9 SW 15.9 0.0 0.0
00:05 9.2 9.1 99 1026.5 12.1 NW 15.9 0.0 0.0
00:06 9.2 9.1 99 1026.5 11.4 SW 12.1 0.0 0.0
00:07 9.2 9.1 99 1026.6 14.5 WNW 14.5 0.0 0.0
00:08 9.2 9.1 99 1026.4 17.4 SW 17.4 0.0 0.0
00:09 9.2 9.1 99 1026.5 13.0 NW 17.4 0.0 0.0
00:10 9.2 9.1 99 1026.7 15.2 W 17.4 0.0 0.0
00:11 9.2 9.1 99 1026.5 15.2 NW 17.4 0.0 0.0
00:12 9.2 9.1 99 1026.6 14.5 NW 17.4 0.0 0.0
00:13 9.2 9.1 99 1026.4 10.7 NW 17.4 0.0 0.0
00:14 9.2 9.1 99 1026.6 10.7 N 17.4 0.0 0.0
00:15 9.2 9.1 99 1026.5 12.1 NW 17.4 0.0 0.0
00:16 9.3 9.2 99 1026.5 9.8 SW 17.4 0.0 0.0
00:18 9.2 9.1 99 1026.4 11.4 W 15.2 0.0 0.0
00:19 9.2 9.1 99 1026.4 13.6 SW 15.2 0.0 0.0
00:20 9.2 9.1 99 1026.5 9.2 SW 15.2 0.0 0.0
00:21 9.2 9.1 99 1026.4 9.2 W 15.2 0.0 0.0
00:22 9.2 9.1 99 1026.4 15.2 W 15.2 0.0 0.0
00:23 9.2 9.1 99 1026.5 11.4 W 15.2 0.0 0.0
00:24 9.2 9.1 99 1026.3 13.0 NW 15.2 0.0 0.0
00:25 9.2 9.1 99 1026.3 12.1 SW 15.2 0.0 0.0
00:26 9.2 9.1 99 1026.3 9.8 S 15.2 0.0 0.0
00:27 9.2 9.1 99 1026.4 13.6 WNW 15.2 0.0 0.0
00:28 9.2 9.1 99 1026.3 10.7 W 15.2 0.0 0.0
00:29 9.2 9.1 99 1026.2 12.1 NW 15.2 0.0 0.0
00:30 9.2 9.1 99 1026.3 15.2 NW 15.2 0.0 0.0
00:31 9.2 9.1 99 1026.2 15.9 SW 15.9 0.0 0.0
00:32 9.2 9.1 99 1026.2 8.3 WSW 15.9 0.0 0.0
00:33 9.2 9.1 99 1026.3 13.6 NNW 15.9 0.0 0.0
00:34 9.2 9.1 99 1026.3 15.2 SW 15.9 0.0 0.0
00:35 9.2 9.1 99 1026.2 14.5 NW 15.9 0.0 0.0
00:36 9.2 9.1 99 1026.2 15.2 SW 15.9 0.0 0.0
00:38 9.2 9.1 99 1026.3 11.4 SW 15.9 0.0 0.0
00:39 9.2 9.1 99 1026.2 10.7 SW 15.9 0.0 0.0
00:40 9.2 9.1 99 1026.1 12.1 SW 15.9 0.0 0.0
00:41 9.2 9.1 99 1026.1 13.0 SW 15.9 0.0 0.0
00:42 9.1 9.0 99 1026.1 10.7 SW 15.2 0.0 0.0
00:43 9.1 9.0 99 1026.0 13.0 W 15.2 0.0 0.0
00:44 9.1 9.0 99 1026.0 13.6 NW 15.2 0.0 0.0
00:45 9.1 9.0 99 1026.1 9.8 SW 15.2 0.0 0.0
00:46 9.1 9.0 99 1026.0 9.2 W 15.2 0.0 0.0
00:47 9.1 9.0 99 1026.1 12.1 SW 14.5 0.0 0.0
00:48 9.1 9.0 99 1026.1 8.3 SW 14.5 0.0 0.0
00:49 9.1 9.0 99 1026.0 10.7 W 14.5 0.0 0.0
00:50 9.1 9.0 99 1026.1 11.4 NW 14.5 0.0 0.0
00:51 9.1 9.0 99 1026.0 11.4 W 14.5 0.0 0.0
00:52 9.1 9.0 99 1025.8 13.0 W 14.5 0.0 0.0
00:53 9.1 9.0 99 1026.0 11.4 W 14.5 0.0 0.0
00:54 9.1 9.0 99 1026.1 10.7 NW 14.5 0.0 0.0
00:55 9.1 9.0 99 1026.2 11.4 SW 14.5 0.0 0.0
00:56 9.1 9.0 99 1026.1 10.7 SW 13.6 0.0 0.0
00:58 9.1 9.0 99 1026.0 13.6 NW 13.6 0.0 0.0
00:59 9.1 9.0 99 1026.2 18.3 SW 18.3 0.0 0.0
01:00 9.1 9.0 99 1026.1 15.2 SW 18.3 0.0 0.0
01:01 9.1 9.0 99 1026.1 19.0 SW 19.0 0.0 0.0
01:02 9.1 9.0 99 1026.1 15.2 NW 19.0 0.0 0.0
01:03 9.1 9.0 99 1026.1 12.1 W 19.0 0.0 0.0
01:05 9.1 9.0 99 1025.9 14.5 SW 19.0 0.0 0.0
01:06 9.1 9.0 99 1025.9 9.2 NW 19.0 0.0 0.0
01:07 9.1 9.0 99 1026.0 11.4 N 19.0 0.0 0.0
01:08 9.1 9.0 99 1025.9 9.8 NW 19.0 0.0 0.0
01:09 9.1 9.0 99 1025.9 9.8 NW 19.0 0.0 0.0
01:10 9.1 9.0 99 1026.0 12.1 NW 19.0 0.0 0.0
01:11 9.1 9.0 99 1026.0 11.4 W 19.0 0.0 0.0
01:12 9.1 9.0 99 1026.0 12.1 NW 15.2 0.0 0.0
01:13 9.1 9.0 99 1026.0 8.3 WNW 14.5 0.0 0.0
01:14 9.1 9.0 99 1025.9 13.0 NW 14.5 0.0 0.0
01:15 9.1 9.0 99 1025.9 13.0 NW 14.5 0.0 0.0
01:16 9.1 9.0 99 1025.9 12.1 SE 13.6 0.0 0.0
01:17 9.1 9.0 99 1025.9 12.1 SW 13.6 0.0 0.0
01:18 9.1 9.0 99 1025.9 12.1 SW 13.6 0.0 0.0
01:19 9.1 9.0 99 1025.9 13.6 W 13.6 0.0 0.0
01:20 9.1 9.0 99 1025.9 13.0 W 13.6 0.0 0.0
01:21 9.1 9.0 99 1025.9 13.6 SW 13.6 0.0 0.0
01:22 9.1 9.0 99 1025.8 12.1 NW 13.6 0.0 0.0
01:24 9.1 9.0 99 1025.7 13.0 W 13.6 0.0 0.0
01:25 9.1 9.0 99 1025.8 9.2 W 15.2 0.0 0.0
01:26 9.1 9.0 99 1025.8 13.6 WNW 15.2 0.0 0.0
01:27 9.1 9.0 99 1025.7 12.1 WSW 15.2 0.0 0.0
01:28 9.1 9.0 99 1025.8 16.8 W 16.8 0.0 0.0
01:29 9.1 9.0 99 1025.8 12.1 WSW 16.8 0.0 0.0
01:30 9.1 9.0 99 1025.6 15.9 W 16.8 0.0 0.0
01:31 9.1 9.0 99 1025.7 13.6 S 16.8 0.0 0.0
01:32 9.1 9.0 99 1025.6 16.8 NW 16.8 0.0 0.0
01:33 9.1 9.0 99 1025.7 15.2 SW 18.3 0.0 0.0
01:34 9.1 9.0 99 1025.7 15.2 SW 18.3 0.0 0.0
01:35 9.1 9.0 99 1025.6 11.4 SE 18.3 0.0 0.0
01:36 9.1 9.0 99 1025.7 15.9 SW 18.3 0.0 0.0
01:37 9.1 9.0 99 1025.6 18.3 WNW 18.3 0.0 0.0
01:38 9.1 9.0 99 1025.7 15.2 NNW 18.3 0.0 0.0
01:39 9.1 9.0 99 1025.7 15.9 SW 18.3 0.0 0.0
01:40 9.1 9.0 99 1025.6 8.3 NW 18.3 0.0 0.0
01:41 9.1 9.0 99 1025.6 15.2 W 18.3 0.0 0.0
01:43 9.1 9.0 99 1025.6 10.7 SW 18.3 0.0 0.0
01:44 9.1 9.0 99 1025.5 10.7 SW 18.3 0.0 0.0
01:45 9.1 9.0 99 1025.8 13.6 SW 18.3 0.0 0.0
01:46 9.1 9.0 99 1025.7 10.7 NW 18.3 0.0 0.0
01:47 9.1 9.0 99 1025.8 13.6 WSW 15.9 0.0 0.0
01:48 9.1 9.0 99 1025.7 13.6 WSW 15.9 0.0 0.0
01:49 9.1 9.0 99 1025.7 12.1 NW 15.2 0.0 0.0
01:50 9.1 9.0 99 1025.8 15.9 W 15.9 0.0 0.0
01:51 9.1 9.0 99 1025.8 10.7 SW 15.9 0.0 0.0
01:52 9.1 9.0 99 1025.7 13.6 W 15.9 0.0 0.0
01:53 9.1 9.0 99 1025.8 13.0 SW 15.9 0.0 0.0
01:54 9.1 9.0 99 1025.6 11.4 NW 15.9 0.0 0.0
01:55 9.1 9.0 99 1025.6 9.8 SW 15.9 0.0 0.0
01:56 9.2 9.1 99 1025.6 10.7 SW 15.9 0.0 0.0
01:57 9.2 9.1 99 1025.6 11.4 SW 15.9 0.0 0.0
01:58 9.2 9.1 99 1025.6 13.6 NW 15.9 0.0 0.0
01:59 9.2 9.1 99 1025.5 11.4 NW 15.9 0.0 0.0
02:00 9.2 9.1 99 1025.6 15.2 SW 15.9 0.0 0.0
02:01 9.2 9.1 99 1025.4 15.2 SW 15.2 0.0 0.0
02:02 9.2 9.1 99 1025.5 15.2 SW 15.2 0.0 0.0
02:03 9.2 9.1 99 1025.5 15.2 SW 15.2 0.0 0.0
02:04 9.2 9.1 99 1025.5 15.2 SW 15.2 0.0 0.0
02:05 9.2 9.1 99 1025.4 8.3 WNW 15.2 0.0 0.0
02:06 9.2 9.1 99 1025.4 13.0 NW 15.2 0.0 0.0
02:07 9.2 9.1 99 1025.4 9.8 SW 15.2 0.0 0.0
02:08 9.2 9.1 99 1025.3 11.4 SW 15.2 0.0 0.0
02:09 9.2 9.1 99 1025.4 13.6 W 15.2 0.0 0.0
02:10 9.2 9.1 99 1025.4 8.3 SW 15.2 0.0 0.0
02:11 9.2 9.1 99 1025.3 12.1 SW 15.2 0.0 0.0
02:12 9.2 9.1 99 1025.4 13.6 SW 15.2 0.0 0.0
02:13 9.2 9.1 99 1025.3 13.6 SW 15.2 0.0 0.0
02:14 9.2 9.1 99 1025.4 17.4 SW 17.4 0.0 0.0
02:15 9.2 9.1 99 1025.3 13.0 W 17.4 0.0 0.0
02:16 9.2 9.1 99 1025.2 13.0 WSW 17.4 0.0 0.0
02:17 9.2 9.1 99 1025.3 10.7 W 17.4 0.0 0.0
02:18 9.2 9.1 99 1025.3 8.3 SSW 17.4 0.0 0.0
02:19 9.2 9.1 99 1025.3 15.2 SW 17.4 0.0 0.0
02:20 9.2 9.1 99 1025.4 14.5 NW 17.4 0.0 0.0
02:21 9.2 9.1 99 1025.3 15.9 SW 17.4 0.0 0.0
02:22 9.2 9.1 99 1025.6 14.5 WSW 17.4 0.0 0.0
02:23 9.2 9.1 99 1025.4 10.7 SW 17.4 0.0 0.0
02:24 9.2 9.1 99 1025.5 12.1 SW 16.8 0.0 0.0
02:25 9.2 9.1 99 1025.5 10.7 W 16.8 0.0 0.0
02:26 9.2 9.1 99 1025.4 15.2 SW 16.8 0.0 0.0
02:27 9.2 9.1 99 1025.4 15.2 W 16.8 0.0 0.0
02:28 9.2 9.1 99 1025.3 12.1 NW 16.8 0.0 0.0
02:29 9.3 9.2 99 1025.4 11.4 WNW 16.8 0.0 0.0
02:30 9.3 9.2 99 1025.4 11.4 WNW 16.8 0.0 0.0
02:31 9.3 9.2 99 1025.5 12.1 W 16.8 0.0 0.0
02:32 9.3 9.2 99 1025.5 15.2 S 15.9 0.0 0.0
02:33 9.3 9.2 99 1025.5 15.9 NW 15.9 0.0 0.0
02:34 9.3 9.2 99 1025.6 15.2 S 15.9 0.0 0.0
02:35 9.3 9.2 99 1025.3 13.6 SW 17.4 0.0 0.0
02:36 9.3 9.2 99 1025.4 11.4 WSW 17.4 0.0 0.0
02:37 9.3 9.2 99 1025.4 14.5 W 17.4 0.0 0.0
02:38 9.3 9.2 99 1025.4 12.1 W 17.4 0.0 0.0
02:39 9.2 9.1 99 1025.3 15.2 NW 17.4 0.0 0.0
02:40 9.2 9.1 99 1025.5 10.7 W 17.4 0.0 0.0
02:41 9.2 9.1 99 1025.4 13.6 SW 17.4 0.0 0.0
02:42 9.2 9.1 99 1025.4 13.0 W 17.4 0.0 0.0
02:43 9.2 9.1 99 1025.5 17.4 NNW 17.4 0.0 0.0
02:44 9.2 9.1 99 1025.4 16.8 SW 17.4 0.0 0.0
02:45 9.2 9.1 99 1025.4 15.9 S 17.4 0.0 0.0
02:46 9.2 9.1 99 1025.3 14.5 SW 17.4 0.0 0.0
02:47 9.2 9.1 99 1025.3 19.0 WSW 19.0 0.0 0.0
02:48 9.2 9.1 99 1025.4 13.6 S 19.0 0.0 0.0
02:49 9.2 9.1 99 1025.4 13.6 NW 19.0 0.0 0.0
02:50 9.2 9.1 99 1025.4 13.6 NW 19.0 0.0 0.0
02:51 9.1 9.0 99 1025.3 14.5 SW 19.0 0.0 0.0
02:52 9.1 9.0 99 1025.4 11.4 S 19.0 0.0 0.0
02:53 9.1 9.0 99 1025.3 12.1 SW 19.0 0.0 0.0
02:54 9.1 9.0 99 1025.2 16.8 N 19.0 0.0 0.0
02:55 9.1 9.0 99 1025.3 13.0 SW 19.0 0.0 0.0
02:56 9.1 9.0 99 1025.3 12.1 SW 19.0 0.0 0.0
02:57 9.1 9.0 99 1025.2 13.6 W 19.0 0.0 0.0
02:58 9.1 9.0 99 1025.2 13.0 SW 16.8 0.0 0.0
02:59 9.1 9.0 99 1025.0 14.5 WSW 16.8 0.0 0.0
03:00 9.1 9.0 99 1025.2 14.5 SW 16.8 0.0 0.0
03:01 9.1 9.0 99 1025.3 14.5 SW 16.8 0.0 0.0
03:02 9.1 9.0 99 1025.3 14.5 SW 16.8 0.0 0.0
03:03 9.1 9.0 99 1025.2 14.5 SW 16.8 0.0 0.0
03:04 9.1 9.0 99 1025.3 14.5 SW 14.5 0.0 0.0
03:05 9.1 9.0 99 1025.3 12.1 W 14.5 0.0 0.0
03:06 9.0 8.9 99 1025.3 15.9 SW 15.9 0.0 0.0
03:07 9.0 8.9 99 1025.1 13.6 SW 15.9 0.0 0.0
03:08 9.0 8.9 99 1025.3 11.4 W 15.9 0.0 0.0
03:09 9.0 8.9 99 1025.2 12.1 WSW 15.9 0.0 0.0
03:10 9.0 8.9 99 1025.2 12.1 WSW 15.9 0.0 0.0
03:11 8.9 8.8 99 1025.1 10.7 S 15.9 0.0 0.0
03:12 9.0 8.9 99 1025.1 13.0 S 15.9 0.0 0.0
03:13 8.9 8.8 99 1025.0 9.2 SW 15.9 0.0 0.0
03:14 8.9 8.8 99 1024.9 11.4 SW 15.9 0.0 0.0
03:15 8.8 8.7 99 1024.9 9.8 SW 15.9 0.0 0.0
03:16 8.8 8.7 99 1025.0 12.1 SW 15.9 0.0 0.0
03:17 8.7 8.6 99 1025.0 9.2 S 13.6 0.0 0.0
03:18 8.7 8.6 99 1024.9 8.3 SW 13.0 0.0 0.0
03:19 8.7 8.6 99 1025.0 11.4 WSW 14.5 0.0 0.0
03:20 8.6 8.5 99 1025.0 8.3 NW 14.5 0.0 0.0
03:21 8.6 8.5 99 1024.9 9.8 SW 14.5 0.0 0.0
03:22 8.6 8.5 99 1025.1 10.7 S 14.5 0.0 0.0
03:23 8.6 8.5 99 1025.0 11.4 NW 14.5 0.0 0.0
03:24 8.5 8.4 99 1025.1 11.4 S 14.5 0.0 0.0
03:25 8.5 8.4 99 1025.1 10.7 SW 14.5 0.0 0.0
03:26 8.5 8.4 99 1025.1 9.8 S 14.5 0.0 0.0
03:27 8.5 8.4 99 1025.2 9.8 SW 14.5 0.0 0.0
03:28 8.4 8.3 99 1025.0 12.1 S 14.5 0.0 0.0
03:29 8.4 8.3 99 1025.1 13.0 SW 13.0 0.0 0.0
03:30 8.4 8.3 99 1025.0 11.4 S 13.0 0.0 0.0
03:31 8.4 8.3 99 1025.0 13.6 SW 13.6 0.0 0.0
03:32 8.3 8.2 99 1024.9 12.1 S 13.6 0.0 0.0
03:33 8.3 8.2 99 1025.0 10.7 SW 13.6 0.0 0.0
03:34 8.3 8.2 99 1025.0 9.8 SW 13.6 0.0 0.0
03:35 8.3 8.2 99 1025.0 9.8 SW 13.6 0.0 0.0
03:36 8.3 8.2 99 1024.9 9.2 WSW 13.6 0.0 0.0
03:37 8.2 8.1 99 1025.0 9.8 WSW 13.6 0.0 0.0
03:38 8.3 8.2 99 1024.9 9.2 SW 13.6 0.0 0.0
03:39 8.2 8.1 99 1024.9 10.7 SW 13.6 0.0 0.0
03:40 8.2 8.1 99 1024.9 9.2 SW 13.6 0.0 0.0
03:41 8.2 8.1 99 1024.9 9.8 S 13.6 0.0 0.0
03:42 8.2 8.1 99 1024.9 11.4 S 12.1 0.0 0.0
03:43 8.2 8.1 99 1024.9 11.4 SW 12.1 0.0 0.0
03:44 8.2 8.1 99 1024.8 11.4 SW 12.1 0.0 0.0
03:45 8.2 8.1 99 1024.8 9.8 SW 12.1 0.0 0.0
03:46 8.1 8.0 99 1024.8 10.7 SW 12.1 0.0 0.0
03:47 8.2 8.1 99 1025.0 10.7 SW 12.1 0.0 0.0
03:48 8.2 8.1 99 1024.9 10.7 W 12.1 0.0 0.0
03:49 8.2 8.1 99 1024.8 12.1 NW 14.5 0.0 0.0
03:50 8.1 8.0 99 1024.9 11.4 SW 14.5 0.0 0.0
03:51 8.2 8.1 99 1024.9 7.6 SSW 14.5 0.0 0.0
03:52 8.1 8.0 99 1025.1 13.0 SW 14.5 0.0 0.0
03:53 8.1 8.0 99 1025.1 10.7 WNW 14.5 0.0 0.0
03:54 8.1 8.0 99 1025.1 11.4 NW 14.5 0.0 0.0
03:55 8.2 8.1 99 1025.1 12.1 SW 14.5 0.0 0.0
03:56 8.1 8.0 99 1025.1 10.7 NW 14.5 0.0 0.0
03:57 8.1 8.0 99 1025.0 14.5 SW 14.5 0.0 0.0
03:58 8.2 8.1 99 1025.1 11.4 SW 14.5 0.0 0.0
03:59 8.1 8.0 99 1025.3 15.9 SW 15.9 0.0 0.0
04:00 8.2 8.1 99 1025.2 13.0 W 15.9 0.0 0.0
04:01 8.2 8.1 99 1025.1 15.9 SW 15.9 0.0 0.0
04:02 8.1 8.0 99 1025.2 13.0 SW 15.9 0.0 0.0
04:03 8.2 8.1 99 1025.0 15.9 W 15.9 0.0 0.0
04:04 8.2 8.1 99 1025.1 11.4 W 15.9 0.0 0.0
04:05 8.2 8.1 99 1025.2 14.5 W 15.9 0.0 0.0
04:06 8.3 8.2 99 1025.0 14.5 W 15.9 0.0 0.0
04:07 8.3 8.2 99 1025.0 19.0 SW 19.0 0.0 0.0
04:08 8.3 8.2 99 1025.2 15.2 NW 19.0 0.0 0.0
04:09 8.3 8.2 99 1024.9 19.7 SW 19.7 0.0 0.0
04:10 8.3 8.2 99 1024.9 19.7 SW 19.7 0.0 0.0
04:11 8.4 8.3 99 1024.8 20.6 WSW 20.6 0.0 0.0
04:12 8.4 8.3 99 1024.9 17.4 W 20.6 0.0 0.0
04:13 8.4 8.3 99 1024.9 15.9 SW 20.6 0.0 0.0
04:14 8.5 8.4 99 1025.0 19.0 SW 20.6 0.0 0.0
04:15 8.5 8.4 99 1024.7 17.4 S 20.6 0.0 0.0
04:16 8.5 8.4 99 1024.8 16.8 SW 20.6 0.0 0.0
04:17 8.6 8.5 99 1024.9 21.3 SW 21.3 0.0 0.0
04:18 8.6 8.5 99 1024.7 16.8 W 21.3 0.0 0.0
04:19 8.6 8.5 99 1024.8 18.3 SW 21.3 0.0 0.0
04:20 8.6 8.5 99 1024.7 16.8 S 21.3 0.0 0.0
04:21 8.7 8.6 99 1024.7 15.9 WNW 22.1 0.0 0.0
04:22 8.7 8.6 99 1024.7 13.0 NW 22.1 0.0 0.0
04:23 8.7 8.6 99 1024.6 21.3 NW 22.1 0.0 0.0
04:24 8.7 8.6 99 1024.6 16.8 WSW 22.1 0.0 0.0
04:25 8.7 8.6 99 1024.6 16.8 SW 22.1 0.0 0.0
04:26 8.7 8.6 99 1024.5 15.2 SW 22.1 0.0 0.0
04:27 8.7 8.6 99 1024.5 19.7 W 22.1 0.0 0.0
04:28 8.7 8.6 99 1024.5 15.2 SW 22.1 0.0 0.0
04:29 8.8 8.7 99 1024.5 21.3 SW 22.1 0.0 0.0
04:30 8.8 8.7 99 1024.6 15.2 SW 22.1 0.0 0.0
04:31 8.8 8.7 99 1024.5 15.2 W 22.1 0.0 0.0
04:32 8.8 8.7 99 1024.5 19.0 S 21.3 0.0 0.0
04:33 8.8 8.7 99 1024.6 19.0 S 21.3 0.0 0.0
04:34 8.8 8.7 99 1024.6 17.4 SW 21.3 0.0 0.0
04:35 8.8 8.7 99 1024.4 19.7 WSW 21.3 0.0 0.0
04:36 8.8 8.7 99 1024.6 21.3 SW 22.1 0.0 0.0
04:37 8.8 8.7 99 1024.4 17.4 SW 22.1 0.0 0.0
04:38 8.8 8.7 99 1024.6 19.7 SW 22.1 0.0 0.0
04:39 8.8 8.7 99 1024.7 18.3 SW 22.1 0.0 0.0
04:40 8.8 8.7 99 1024.5 16.8 SW 22.1 0.0 0.0
04:41 8.8 8.7 99 1024.6 18.3 SW 22.1 0.0 0.0
04:42 8.8 8.7 99 1024.5 16.8 W 22.1 0.0 0.0
04:43 8.9 8.8 99 1024.5 14.5 NW 22.1 0.0 0.0
04:44 8.9 8.8 99 1024.6 22.8 WSW 22.8 0.0 0.0
04:45 8.8 8.7 99 1024.6 19.7 WNW 22.8 0.0 0.0
04:46 8.9 8.8 99 1024.5 23.5 WNW 23.5 0.0 0.0
04:47 8.9 8.8 99 1024.4 17.4 SW 23.5 0.0 0.0
04:48 8.8 8.7 99 1024.4 19.7 WSW 23.5 0.0 0.0
04:49 8.9 8.8 99 1024.3 23.5 NNW 23.5 0.0 0.0
04:50 8.8 8.7 99 1024.5 22.1 WSW 23.5 0.0 0.0
04:51 8.9 8.8 99 1024.4 18.3 NW 23.5 0.0 0.0
04:52 8.8 8.7 99 1024.4 17.4 N 23.5 0.0 0.0
04:53 8.8 8.7 99 1024.3 16.8 SW 23.5 0.0 0.0
04:54 8.8 8.7 99 1024.3 20.6 WSW 23.5 0.0 0.0
04:55 8.8 8.7 99 1024.5 18.3 SW 23.5 0.0 0.0
04:56 8.8 8.7 99 1024.4 15.9 NW 23.5 0.0 0.0
04:57 8.8 8.7 99 1024.3 17.4 WSW 23.5 0.0 0.0
04:58 8.8 8.7 99 1024.5 17.4 SW 23.5 0.0 0.0
04:59 8.8 8.7 99 1024.4 15.9 W 22.1 0.0 0.0
05:00 9.0 8.9 99 1024.4 15.9 SW 20.6 0.0 0.0
05:01 8.8 8.7 99 1024.3 18.3 SW 20.6 0.0 0.0
05:02 8.8 8.7 99 1024.3 18.3 SW 20.6 0.0 0.0
05:03 8.8 8.7 99 1024.2 18.3 SW 20.6 0.0 0.0
05:04 8.8 8.7 99 1024.4 15.9 SW 18.3 0.0 0.0
05:05 8.8 8.7 99 1024.4 14.5 WSW 18.3 0.0 0.0
05:06 8.8 8.7 99 1024.4 15.9 WSW 18.3 0.0 0.0
05:07 8.8 8.7 99 1024.3 15.9 NW 18.3 0.0 0.0
05:08 8.8 8.7 99 1024.5 13.0 SW 18.3 0.0 0.0
05:09 8.8 8.7 99 1024.5 15.2 SW 18.3 0.0 0.0
05:10 8.8 8.7 99 1024.4 15.2 NW 18.3 0.0 0.0
05:11 8.8 8.7 99 1024.4 15.2 NW 18.3 0.0 0.0
05:12 8.8 8.7 99 1024.5 15.9 WNW 18.3 0.0 0.0
05:13 8.8 8.7 99 1024.5 13.0 SW 18.3 0.0 0.0
05:14 8.8 8.7 99 1024.3 13.0 NW 16.8 0.0 0.0
05:15 8.8 8.7 99 1024.3 15.9 SW 15.9 0.0 0.0
05:16 8.8 8.7 99 1024.5 19.7 W 20.6 0.0 0.0
05:17 8.8 8.7 99 1024.4 14.5 SW 20.6 0.0 0.0
05:18 8.8 8.7 99 1024.3 17.4 WSW 20.6 0.0 0.0
05:19 8.8 8.7 99 1024.4 19.0 SW 20.6 0.0 0.0
05:20 8.8 8.7 99 1024.4 22.1 WSW 22.1 0.0 0.0
05:22 8.9 8.8 99 1024.3 18.3 S 22.1 0.0 0.0
05:23 8.9 8.8 99 1024.4 16.8 W 22.1 0.0 0.0
05:24 8.9 8.8 99 1024.3 19.0 NW 22.1 0.0 0.0
05:25 8.9 8.8 99 1024.3 15.2 NW 22.1 0.0 0.0
05:26 8.9 8.8 99 1024.3 15.2 W 22.1 0.0 0.0
05:27 8.9 8.8 99 1024.3 15.2 W 22.1 0.0 0.0
05:28 8.9 8.8 99 1024.3 15.2 SW 22.1 0.0 0.0
05:29 8.9 8.8 99 1024.4 15.9 N 22.1 0.0 0.0
05:30 8.9 8.8 99 1024.4 15.9 N 22.1 0.0 0.0
05:31 8.9 8.8 99 1024.2 16.8 S 20.6 0.0 0.0
05:32 8.9 8.8 99 1024.4 18.3 SW 19.0 0.8 0.1
05:33 8.8 8.7 99 1024.3 13.6 WSW 19.0 0.8 0.1
05:34 8.8 8.7 99 1024.4 14.5 SW 19.0 0.8 0.1
05:35 8.9 8.8 99 1024.3 18.3 SW 19.0 0.8 0.1
05:36 8.8 8.7 99 1024.2 15.9 WSW 18.3 0.8 0.1
05:37 8.8 8.7 99 1024.5 11.4 W 18.3 0.0 0.1
05:38 8.8 8.7 99 1024.5 16.8 W 18.3 0.0 0.1
05:39 8.8 8.7 99 1024.4 14.5 SW 18.3 0.0 0.1
05:41 8.8 8.7 99 1024.4 16.8 WSW 18.3 0.0 0.1
05:42 8.8 8.7 99 1024.2 15.9 NW 18.3 0.0 0.1
05:43 8.8 8.7 99 1024.4 12.1 SW 18.3 0.0 0.1
05:44 8.8 8.7 99 1024.3 18.3 SW 18.3 0.0 0.1
05:45 8.7 8.6 99 1024.2 18.3 SW 18.3 0.0 0.1
05:46 8.8 8.7 99 1024.3 22.1 SSW 22.1 0.0 0.1
05:47 8.7 8.6 99 1024.2 21.3 SE 22.1 0.0 0.1
05:48 8.7 8.6 99 1024.3 17.4 SW 22.1 0.0 0.1
05:49 8.7 8.6 99 1024.3 19.7 NW 22.1 0.8 0.1
05:50 8.7 8.6 99 1024.3 18.3 WNW 22.1 0.8 0.1
05:51 8.7 8.6 99 1024.3 18.3 SW 22.1 0.8 0.1
05:52 8.7 8.6 99 1024.3 19.0 WNW 22.1 0.8 0.1
05:53 8.7 8.6 99 1024.1 12.1 W 22.1 0.8 0.1
05:54 8.7 8.6 99 1024.2 22.8 WSW 22.8 0.0 0.1
05:55 8.7 8.6 99 1024.3 20.6 S 22.8 0.0 0.1
05:56 9.4 9.3 99 1024.2 13.6 NW 22.8 0.0 0.1
05:57 8.7 8.6 99 1024.4 18.3 SW 22.8 0.0 0.1
05:59 8.7 8.6 99 1024.1 15.2 SW 22.8 0.0 0.1
06:00 8.6 8.5 99 1024.3 21.3 W 22.8 0.0 0.1
06:01 8.7 8.6 99 1024.3 17.4 W 22.8 0.0 0.1
06:02 8.7 8.6 99 1024.2 13.0 W 22.8 0.0 0.1
06:03 8.6 8.5 99 1024.4 19.7 NW 22.8 0.0 0.1
06:04 8.6 8.5 99 1024.3 15.9 WSW 21.3 0.0 0.1
06:05 8.7 8.6 99 1024.2 13.6 W 21.3 0.0 0.1
06:06 8.7 8.6 99 1024.4 12.1 W 21.3 0.0 0.1
06:07 8.7 8.6 99 1024.3 12.1 WSW 21.3 0.0 0.1
06:08 8.7 8.6 99 1024.1 18.3 WSW 21.3 0.0 0.1
06:09 8.7 8.6 99 1024.3 16.8 WSW 21.3 0.0 0.1
06:10 8.7 8.6 99 1024.1 13.6 WSW 21.3 0.0 0.1
06:11 8.7 8.6 99 1024.1 14.5 SW 19.7 0.0 0.1
06:12 8.7 8.6 99 1024.3 13.6 WSW 19.7 0.0 0.1
06:13 8.7 8.6 99 1024.2 15.9 WNW 19.7 0.0 0.1
06:14 8.7 8.6 99 1024.2 14.5 WSW 18.3 0.0 0.1
06:15 8.7 8.6 99 1024.2 15.2 WNW 18.3 0.0 0.1
06:16 8.7 8.6 99 1024.2 15.2 WNW 18.3 0.0 0.1
06:17 8.8 8.7 99 1024.2 15.9 SW 18.3 0.0 0.1
06:19 8.8 8.7 99 1024.4 12.1 SW 16.8 0.0 0.1
06:20 8.8 8.7 99 1024.3 15.9 SW 16.8 0.0 0.1
06:21 8.8 8.7 99 1024.3 15.9 W 16.8 0.0 0.1
06:22 8.8 8.7 99 1024.4 15.9 W 16.8 0.0 0.1
06:23 8.8 8.7 99 1024.1 17.4 W 17.4 0.0 0.1
06:24 8.9 8.8 99 1024.2 9.8 W 17.4 0.0 0.1
06:25 8.9 8.8 99 1024.4 13.0 SW 17.4 0.0 0.1
06:26 8.9 8.8 99 1024.4 13.0 SW 17.4 0.0 0.1
06:27 8.9 8.8 99 1024.3 13.0 SW 17.4 0.0 0.1
06:28 8.9 8.8 99 1024.1 17.4 SW 17.4 0.0 0.1
06:29 8.9 8.8 99 1024.2 14.5 W 17.4 0.0 0.1
06:30 8.9 8.8 99 1024.3 15.2 SW 17.4 0.0 0.1
06:31 8.9 8.8 99 1024.2 19.7 SW 19.7 0.0 0.1
06:32 8.9 8.8 99 1024.2 20.6 N 20.6 0.0 0.1
06:33 8.9 8.8 99 1024.4 19.7 W 20.6 0.0 0.1
06:34 8.9 8.8 99 1024.3 22.1 SW 22.1 0.0 0.1
06:35 8.9 8.8 99 1024.2 14.5 WSW 22.1 0.0 0.1
06:36 8.9 8.8 99 1024.2 16.8 SW 22.1 0.0 0.1
06:38 9.0 8.9 99 1024.1 13.6 SW 22.1 0.0 0.1
06:39 8.9 8.8 99 1024.1 14.5 W 22.1 0.0 0.1
06:40 9.0 8.9 99 1024.0 16.8 WSW 22.1 0.0 0.1
06:41 9.0 8.9 99 1024.0 18.3 NE 22.1 0.0 0.1
06:42 9.0 8.9 99 1024.0 22.1 SW 22.1 0.0 0.1
06:44 9.0 8.9 99 1024.0 15.9 N 22.1 0.0 0.1
06:46 9.0 8.9 99 1024.0 15.9 SW 22.1 0.0 0.1
06:47 9.0 8.9 99 1024.0 12.1 SW 22.1 0.0 0.1
06:48 8.9 8.8 99 1024.0 14.5 W 22.1 0.0 0.1
06:49 8.9 8.8 99 1024.0 13.0 NW 22.1 0.0 0.1
06:50 9.0 8.9 99 1024.0 13.6 SW 22.1 0.0 0.1
06:51 9.0 8.9 99 1024.0 15.2 SW 22.1 0.0 0.1
06:52 9.0 8.9 99 1023.9 12.1 SW 22.1 0.0 0.1
06:53 9.0 8.9 99 1023.9 12.1 SW 19.7 0.0 0.1
06:54 8.9 8.8 99 1023.9 13.0 SW 18.3 0.0 0.1
06:55 8.9 8.8 99 1023.8 13.0 SW 15.9 0.0 0.1
06:56 8.9 8.8 99 1023.9 16.8 W 16.8 0.0 0.1
06:57 8.9 8.8 99 1023.7 22.1 W 22.1 0.0 0.1
06:58 8.9 8.8 99 1023.8 12.1 WSW 22.1 0.0 0.1
06:59 8.9 8.8 99 1023.9 10.7 NW 22.1 0.0 0.1
07:00 8.9 8.8 99 1023.8 9.8 SW 22.1 0.0 0.1
07:01 8.9 8.8 99 1023.8 9.8 SW 22.1 0.0 0.1
07:02 8.9 8.8 99 1023.9 16.8 WSW 22.1 0.0 0.1
07:03 8.9 8.8 99 1023.9 12.1 SW 22.1 0.0 0.1
07:04 8.9 8.8 99 1023.9 10.7 W 22.1 0.0 0.1
07:05 8.9 8.8 99 1023.8 11.4 SW 22.1 0.0 0.1
07:06 8.9 8.8 99 1023.8 11.4 SW 22.1 0.0 0.1
07:08 8.9 8.8 99 1023.8 9.8 SW 16.8 0.0 0.1
07:09 9.0 8.9 99 1023.8 14.5 SW 16.8 0.0 0.1
07:10 9.0 8.9 99 1023.8 14.5 W 16.8 0.0 0.1
07:11 9.0 8.9 99 1024.0 16.8 W 16.8 0.0 0.1
07:12 8.9 8.8 99 1023.8 12.1 NW 16.8 0.0 0.1
07:13 9.0 8.9 99 1023.8 12.1 NW 16.8 0.0 0.1
07:14 9.0 8.9 99 1023.8 15.2 S 16.8 0.0 0.1
07:15 9.0 8.9 99 1023.8 13.6 NW 16.8 0.0 0.1
07:16 9.0 8.9 99 1023.8 18.3 NW 18.3 0.0 0.1
07:17 9.0 8.9 99 1023.7 15.9 W 18.3 0.0 0.1
07:18 9.0 8.9 99 1023.8 21.3 SW 21.3 0.0 0.1
07:19 9.0 8.9 99 1023.8 17.4 SW 21.3 0.0 0.1
07:20 9.0 8.9 99 1023.8 12.1 SW 21.3 0.0 0.1
07:21 8.9 8.8 99 1023.8 13.0 S 21.3 0.0 0.1
07:22 8.9 8.8 99 1023.8 17.4 SW 21.3 0.0 0.1
07:23 8.9 8.8 99 1023.8 15.2 WSW 21.3 0.0 0.1
07:24 8.9 8.8 99 1023.8 13.6 W 21.3 0.0 0.1
07:25 8.9 8.8 99 1023.8 18.3 SW 21.3 0.0 0.1
07:27 8.9 8.8 99 1023.8 19.7 SW 21.3 0.0 0.1
07:28 8.9 8.8 99 1023.6 15.9 NW 19.7 0.0 0.1
07:29 8.9 8.8 99 1023.8 17.4 NW 19.7 0.0 0.1
07:30 8.9 8.8 99 1023.7 19.7 WSW 19.7 0.0 0.1
07:31 8.9 8.8 99 1023.8 16.8 WSW 19.7 0.0 0.1
07:32 8.9 8.8 99 1023.7 16.8 N 19.7 0.0 0.1
07:33 8.9 8.8 99 1023.6 13.6 W 21.3 0.0 0.1
07:34 8.9 8.8 99 1023.6 13.6 W 21.3 0.0 0.1
07:35 8.9 8.8 99 1023.6 15.2 NW 21.3 0.0 0.1
07:36 8.8 8.7 99 1023.6 19.7 NW 21.3 0.0 0.1
07:37 8.9 8.8 99 1023.5 16.8 SW 21.3 0.0 0.1
07:38 8.9 8.8 99 1023.5 14.5 NW 21.3 0.0 0.1
07:39 8.8 8.7 99 1023.4 15.9 SW 21.3 0.0 0.1
07:40 8.8 8.7 99 1023.4 20.6 W 21.3 0.0 0.1
07:41 8.8 8.7 99 1023.4 15.9 SW 21.3 0.0 0.1
07:43 8.8 8.7 99 1023.5 17.4 SW 20.6 0.0 0.1
07:44 8.9 8.8 99 1023.5 19.0 WSW 20.6 0.0 0.1
07:45 8.9 8.8 99 1023.6 15.9 WSW 20.6 0.0 0.1
07:46 8.9 8.8 99 1023.6 13.6 WNW 20.6 0.0 0.1
07:47 8.8 8.7 99 1023.5 17.4 WNW 20.6 0.0 0.1
07:48 8.9 8.8 99 1023.5 16.8 SW 20.6 0.0 0.1
07:49 8.9 8.8 99 1023.5 16.8 SW 20.6 0.0 0.1
07:50 8.9 8.8 99 1023.6 13.0 W 20.6 0.0 0.1
07:51 8.9 8.8 99 1023.6 18.3 WSW 19.7 0.0 0.1
07:52 8.9 8.8 99 1023.6 13.0 SW 19.7 0.0 0.1
07:53 8.9 8.8 99 1023.6 18.3 SW 19.7 0.0 0.1
07:54 8.9 8.8 99 1023.7 16.8 SW 19.7 0.0 0.1
07:55 8.9 8.8 99 1023.7 15.9 W 19.7 0.0 0.1
07:56 8.9 8.8 99 1023.5 22.1 SW 22.1 0.0 0.1
07:58 9.0 8.9 99 1023.5 15.9 WSW 22.1 0.0 0.1
07:59 9.0 8.9 99 1023.5 21.3 W 22.1 0.0 0.2
08:00 9.0 8.9 99 1023.5 18.3 SW 22.1 0.8 0.2
08:01 9.0 8.9 99 1023.7 15.2 NW 22.1 0.8 0.2
08:02 9.0 8.9 99 1023.7 18.3 SW 22.1 0.8 0.2
08:03 9.0 8.9 99 1023.7 18.3 SW 22.1 0.8 0.2
08:04 9.0 8.9 99 1023.7 21.3 WSW 22.1 0.8 0.2
08:05 9.0 8.9 99 1023.5 18.3 SW 22.1 0.0 0.2
08:06 9.0 8.9 99 1023.7 14.5 SW 22.1 0.0 0.2
08:07 9.0 8.9 99 1023.5 13.0 SW 21.3 0.0 0.2
08:08 9.0 8.9 99 1023.6 19.0 SW 21.3 0.0 0.2
08:09 9.0 8.9 99 1023.6 15.2 SW 21.3 0.0 0.2
08:10 9.0 8.9 99 1023.7 14.5 SW 21.3 0.0 0.2
08:12 9.0 8.9 99 1023.6 21.3 SW 21.3 0.0 0.2
08:13 9.0 8.9 99 1023.6 18.3 NW 21.3 0.0 0.2
08:14 9.0 8.9 99 1023.7 15.2 NW 21.3 0.0 0.2
08:15 9.0 8.9 99 1023.5 16.8 S 21.3 0.0 0.2
08:16 9.0 8.9 99 1023.7 12.1 W 21.3 0.0 0.2
08:17 9.0 8.9 99 1023.7 12.1 W 21.3 0.0 0.2
08:18 9.0 8.9 99 1023.8 16.8 SW 21.3 0.0 0.2
08:19 9.0 8.9 99 1023.7 15.2 SW 21.3 0.0 0.2
08:20 9.0 8.9 99 1023.7 17.4 NW 21.3 0.0 0.2
08:21 9.0 8.9 99 1023.5 18.3 W 21.3 0.0 0.2
08:22 9.0 8.9 99 1023.6 18.3 SW 21.3 0.0 0.2
08:23 9.1 9.0 99 1023.7 17.4 SW 19.0 0.0 0.2
08:24 9.1 9.0 99 1023.7 13.6 WNW 19.0 0.0 0.2
08:26 9.1 9.0 99 1023.5 15.9 W 19.7 0.0 0.2
08:27 9.1 9.0 99 1023.5 19.0 W 19.7 0.0 0.2
08:28 9.1 9.0 99 1023.6 10.7 S 19.7 0.0 0.2
08:29 9.1 9.0 99 1023.6 15.2 SW 19.7 0.0 0.2
08:30 9.1 9.0 99 1023.5 15.9 SW 19.7 0.0 0.2
08:31 9.1 9.0 99 1023.5 15.9 SW 19.7 0.0 0.2
08:32 9.1 9.0 99 1023.8 15.2 SSW 19.7 0.0 0.2
08:33 9.1 9.0 99 1023.6 15.9 NW 19.7 0.0 0.2
08:34 9.1 9.0 99 1023.6 15.2 WNW 19.7 0.0 0.2
08:35 9.1 9.0 99 1023.8 17.4 SW 19.7 0.0 0.2
08:36 9.1 9.0 99 1023.7 13.6 SW 19.7 0.0 0.2
08:37 9.1 9.0 99 1023.7 15.2 SW 19.7 0.0 0.2
08:38 9.1 9.0 99 1023.8 10.7 WSW 19.7 0.0 0.2
08:40 9.2 9.1 99 1023.6 12.1 SW 19.7 0.0 0.2
08:41 9.2 9.1 99 1023.6 18.3 NW 18.3 0.0 0.2
08:42 9.2 9.1 99 1023.6 15.9 SW 18.3 0.0 0.2
08:43 9.2 9.1 99 1023.8 15.9 NW 18.3 0.0 0.2
08:44 9.2 9.1 99 1023.7 13.6 NW 18.3 0.0 0.2
08:45 9.2 9.1 99 1023.7 13.6 NW 18.3 0.0 0.2
08:46 9.2 9.1 99 1023.5 13.6 N 18.3 0.0 0.2
08:47 9.2 9.1 99 1023.4 13.0 SW 18.3 0.0 0.2
08:48 9.2 9.1 99 1023.6 17.4 SW 18.3 0.0 0.2
08:49 9.2 9.1 99 1023.4 13.6 WSW 18.3 0.0 0.2
08:50 9.2 9.1 99 1023.7 14.5 NW 18.3 0.0 0.2
08:51 9.2 9.1 99 1023.4 15.2 SW 18.3 0.0 0.2
08:52 9.2 9.1 99 1023.3 19.7 SW 19.7 0.0 0.2
08:54 9.2 9.1 99 1023.5 12.1 SW 19.7 0.0 0.2
08:55 9.2 9.1 99 1023.5 17.4 W 19.7 0.0 0.2
08:56 9.2 9.1 99 1023.4 17.4 WNW 19.7 0.0 0.2
08:57 9.2 9.1 99 1023.6 13.0 SW 19.7 0.0 0.2
08:58 9.2 9.1 99 1023.4 18.3 S 19.7 0.0 0.2
08:59 9.2 9.1 99 1023.4 18.3 S 19.7 0.0 0.2
09:00 9.2 9.1 99 1023.3 22.1 SW 22.1 0.0 0.2
09:01 9.2 9.1 99 1023.4 22.1 SW 22.1 0.0 0.2
09:02 9.2 9.1 99 1023.5 16.8 SW 22.1 0.0 0.2
09:03 9.3 9.2 99 1023.3 13.6 SW 22.1 0.0 0.2
09:04 9.3 9.2 99 1023.4 16.8 W 22.1 0.0 0.2
09:05 9.3 9.2 99 1023.5 18.3 WSW 22.1 0.0 0.2
09:06 9.3 9.2 99 1023.4 18.3 W 22.1 0.0 0.2
09:07 9.3 9.2 99 1023.3 17.4 SW 22.1 0.0 0.2
09:08 9.3 9.2 99 1023.5 17.4 SW 22.1 0.0 0.2
09:09 9.3 9.2 99 1023.4 23.5 W 23.5 0.0 0.2
09:10 9.3 9.2 99 1023.3 13.6 E 23.5 0.0 0.2
09:12 9.3 9.2 99 1023.4 18.3 W 23.5 0.0 0.2
09:13 9.3 9.2 99 1023.4 15.2 SW 23.5 0.0 0.2
09:14 9.3 9.2 99 1023.3 21.3 SW 23.5 0.0 0.2
09:15 9.3 9.2 99 1023.5 21.3 SW 23.5 0.0 0.2
09:16 9.3 9.2 99 1023.4 17.4 W 23.5 0.0 0.2
09:17 9.3 9.2 99 1023.4 13.0 S 23.5 0.0 0.2
09:18 9.3 9.2 99 1023.5 15.9 W 23.5 0.0 0.2
09:19 9.3 9.2 99 1023.6 9.8 WNW 23.5 0.0 0.2
09:20 9.3 9.2 99 1023.6 13.0 W 21.3 0.0 0.2
09:21 9.3 9.2 99 1023.3 16.8 W 21.3 0.0 0.2
09:22 9.3 9.2 99 1023.6 12.1 E 21.3 0.0 0.2
09:23 9.3 9.2 99 1023.4 16.8 NW 21.3 0.0 0.2
09:24 9.3 9.2 99 1023.5 18.3 SW 21.3 0.0 0.2
09:26 9.3 9.2 99 1023.5 14.5 NW 20.6 0.0 0.2
09:27 9.3 9.2 99 1023.5 10.7 W 20.6 0.0 0.2
09:28 9.3 9.2 99 1023.6 21.3 W 21.3 0.0 0.2
09:29 9.3 9.2 99 1023.7 18.3 SW 21.3 0.0 0.2
09:30 9.3 9.2 99 1023.7 18.3 SW 21.3 0.0 0.2
09:31 9.3 9.2 99 1023.5 19.0 W 21.3 0.0 0.2
09:32 9.3 9.2 99 1023.6 19.0 W 21.3 0.0 0.2
09:33 9.3 9.2 99 1023.6 23.5 SW 23.5 0.0 0.2
09:34 9.3 9.2 99 1023.6 25.9 SW 25.9 0.0 0.2
09:35 9.4 9.3 99 1023.6 20.6 S 25.9 0.0 0.2
09:36 9.3 9.2 99 1023.3 21.3 NNW 25.9 0.0 0.2
09:37 9.4 9.3 99 1023.3 19.0 W 25.9 0.0 0.2
09:39 9.4 9.3 99 1023.3 9.8 N 25.9 0.0 0.2
09:40 9.4 9.3 99 1023.3 13.0 W 25.9 0.0 0.2
09:41 9.4 9.3 99 1023.5 15.9 SW 25.9 0.0 0.2
09:42 9.4 9.3 99 1023.4 13.6 WSW 25.9 0.0 0.2
09:43 9.4 9.3 99 1023.4 17.4 SW 25.9 0.0 0.2
09:44 9.4 9.3 99 1023.3 15.9 WSW 21.3 0.0 0.2
09:45 9.4 9.3 99 1023.5 14.5 W 21.3 0.0 0.2
09:46 9.4 9.3 99 1023.4 13.6 SW 21.3 0.0 0.2
09:47 9.4 9.3 99 1023.3 20.6 SW 22.1 0.0 0.2
09:48 9.4 9.3 99 1023.3 14.5 WSW 22.1 0.0 0.2
09:49 9.4 9.3 99 1023.3 17.4 SW 22.1 0.0 0.2
09:50 9.4 9.3 99 1023.5 19.0 W 22.1 0.0 0.2
09:51 9.4 9.3 99 1023.4 19.0 SW 22.1 0.0 0.2
09:52 9.4 9.3 99 1023.4 16.8 S 22.1 0.0 0.2
09:54 9.4 9.3 99 1023.3 14.5 W 22.1 0.0 0.2
09:55 9.5 9.4 99 1023.2 16.8 W 22.1 0.0 0.2
09:56 9.5 9.4 99 1023.2 17.4 SW 22.1 0.0 0.2
09:57 9.5 9.4 99 1023.5 15.9 NNW 19.0 0.0 0.2
09:58 9.5 9.4 99 1023.5 15.9 NNW 19.0 0.0 0.2
09:59 9.5 9.4 99 1023.2 17.4 NW 19.0 0.0 0.2
10:00 9.5 9.4 99 1023.2 12.1 WSW 19.0 0.0 0.2
10:01 9.5 9.4 99 1023.2 12.1 WSW 19.0 0.0 0.2
10:02 9.7 9.6 99 1023.2 16.8 NW 19.0 0.0 0.2
10:03 9.5 9.4 99 1023.0 14.5 SW 17.4 0.0 0.2
10:04 9.5 9.4 99 1023.1 16.8 NNE 17.4 0.0 0.2
10:05 9.5 9.4 99 1023.1 16.8 W 17.4 0.0 0.2
10:06 9.5 9.4 99 1023.0 19.7 SW 19.7 0.0 0.2
10:08 9.5 9.4 99 1023.0 16.8 SW 19.7 0.0 0.2
10:09 9.5 9.4 99 1023.1 13.6 SW 19.7 0.0 0.2
10:10 9.5 9.4 99 1023.1 12.1 N 19.7 0.0 0.2
10:11 9.5 9.4 99 1023.1 13.6 N 19.7 0.0 0.2
10:12 9.5 9.4 99 1023.2 10.7 N 19.7 0.0 0.2
10:13 9.5 9.4 99 1023.2 12.1 N 19.7 0.0 0.2
10:14 9.5 9.4 99 1023.2 19.0 NW 19.7 0.0 0.2
10:15 9.5 9.4 99 1023.1 19.7 SW 19.7 0.0 0.2
10:16 9.5 9.4 99 1023.2 15.9 W 19.7 0.0 0.2
10:17 9.5 9.4 99 1023.2 16.8 SW 19.7 0.0 0.2
10:18 9.5 9.4 99 1023.2 19.0 SW 21.3 0.0 0.2
10:19 9.5 9.4 99 1023.2 17.4 N 21.3 0.0 0.2
10:20 9.5 9.4 99 1023.2 11.4 SW 21.3 0.0 0.2
10:22 9.5 9.4 99 1023.3 17.4 SW 21.3 0.0 0.2
10:23 9.5 9.4 99 1023.3 13.0 SW 21.3 0.0 0.2
10:24 9.5 9.4 99 1023.3 17.4 SW 21.3 0.0 0.2
10:25 9.5 9.4 99 1023.2 19.0 W 21.3 0.0 0.2
10:26 9.6 9.5 99 1023.3 11.4 W 21.3 0.0 0.2
10:27 9.6 9.5 99 1023.3 13.6 W 21.3 0.0 0.2
10:28 9.6 9.5 99 1023.3 17.4 W 19.0 0.0 0.2
10:29 9.6 9.5 99 1023.2 14.5 WNW 19.0 0.0 0.2
10:30 9.6 9.5 99 1023.2 14.5 SW 19.0 0.0 0.2
10:31 9.6 9.5 99 1023.3 18.3 SE 20.6 0.0 0.2
10:32 9.6 9.5 99 1023.0 18.3 W 20.6 0.0 0.2
10:33 9.6 9.5 99 1023.2 18.3 SW 20.6 0.0 0.2
10:34 9.6 9.5 99 1023.0 20.6 W 20.6 0.0 0.2
10:36 9.6 9.5 99 1023.0 18.3 W 20.6 0.0 0.2
10:37 9.6 9.5 99 1023.0 12.1 W 20.6 0.0 0.2
10:38 9.6 9.5 99 1023.3 12.1 NW 20.6 0.0 0.2
10:39 9.6 9.5 99 1023.2 16.8 S 20.6 0.0 0.2
10:40 9.6 9.5 99 1023.1 8.3 SW 20.6 0.0 0.2
10:41 9.7 9.6 99 1023.2 12.1 NW 20.6 0.0 0.2
10:42 9.6 9.5 99 1023.2 21.3 SW 21.3 0.0 0.2
10:43 9.7 9.6 99 1022.9 13.0 WNW 21.3 0.0 0.2
10:44 9.7 9.6 99 1023.0 20.6 WNW 21.3 0.0 0.2
10:45 9.7 9.6 99 1022.9 15.2 N 21.3 0.0 0.2
10:46 9.7 9.6 99 1023.0 15.2 N 21.3 0.0 0.2
10:47 9.7 9.6 99 1022.8 20.6 SW 21.3 0.0 0.2
10:48 9.7 9.6 99 1022.9 18.3 W 21.3 0.0 0.2
10:49 9.7 9.6 99 1022.8 10.7 SW 21.3 0.0 0.2
10:51 9.7 9.6 99 1022.7 20.6 SW 21.3 0.0 0.2
10:52 9.7 9.6 99 1022.9 9.8 WSW 21.3 0.0 0.2
10:53 9.7 9.6 99 1022.8 10.7 NW 20.6 0.0 0.2
10:54 9.7 9.6 99 1022.8 13.6 W 20.6 0.0 0.2
10:55 9.7 9.6 99 1022.8 13.6 W 20.6 0.0 0.2
10:56 9.7 9.6 99 1022.7 16.8 NW 20.6 0.0 0.2
10:57 9.7 9.6 99 1022.8 14.5 SW 20.6 0.0 0.2
10:58 9.7 9.6 99 1022.8 12.1 W 20.6 0.0 0.2
10:59 9.8 9.7 99 1022.9 15.2 W 20.6 0.0 0.2
11:00 9.8 9.7 99 1022.7 19.0 W 20.6 0.0 0.2
11:01 9.8 9.7 99 1022.7 19.0 W 20.6 0.0 0.2
11:02 9.8 9.7 99 1022.8 18.3 S 22.8 0.0 0.2
11:03 9.8 9.7 99 1022.8 17.4 W 22.8 0.0 0.2
11:04 9.9 9.8 99 1022.9 15.9 SW 22.8 0.0 0.2
11:05 9.9 9.8 99 1022.8 15.2 NW 22.8 0.0 0.2
11:06 9.9 9.8 99 1022.8 23.5 N 23.5 0.0 0.2
11:07 9.9 9.8 99 1022.6 19.0 NW 23.5 0.0 0.2
11:09 9.9 9.8 99 1022.6 17.4 NW 25.9 0.0 0.2
11:10 9.9 9.8 99 1022.7 17.4 NW 25.9 0.0 0.2
11:11 9.9 9.8 99 1022.6 17.4 SW 25.9 0.0 0.2
11:12 9.9 9.8 99 1022.7 20.6 SW 25.9 0.0 0.2
11:13 9.9 9.8 99 1022.7 20.6 SW 25.9 0.0 0.2
11:14 9.9 9.8 99 1022.7 17.4 SW 25.9 0.0 0.2
11:15 9.9 9.8 99 1022.7 17.4 SW 25.9 0.0 0.2
11:16 9.9 9.8 99 1022.6 22.8 SW 25.9 0.0 0.2
11:17 9.9 9.8 99 1022.5 17.4 WSW 25.9 0.0 0.2
11:18 10.0 9.9 99 1022.4 22.1 WSW 25.9 0.0 0.2
11:19 10.0 9.9 99 1022.4 20.6 SW 22.8 0.0 0.2
11:20 10.0 9.9 99 1022.6 13.6 NW 22.8 0.0 0.2
11:21 10.0 9.9 99 1022.5 18.3 NW 22.8 0.0 0.2
11:23 10.0 9.9 99 1022.6 19.0 WSW 22.8 0.0 0.2
11:24 10.0 9.9 99 1022.4 20.6 NW 22.8 0.0 0.2
11:25 10.0 9.9 99 1022.5 23.5 NW 23.5 0.0 0.2
11:26 10.0 9.9 99 1022.5 18.3 S 23.5 0.0 0.2
11:27 10.0 9.9 99 1022.5 22.1 S 23.5 0.0 0.2
11:28 10.0 9.9 99 1022.4 17.4 W 23.5 0.0 0.2
11:29 10.0 9.9 99 1022.6 22.8 SW 23.5 0.0 0.2
11:30 10.0 9.9 99 1022.4 15.9 SW 23.5 0.0 0.2
11:31 10.0 9.9 99 1022.3 21.3 NW 23.5 0.0 0.2
11:32 10.0 9.9 99 1022.4 22.1 NW 23.5 0.0 0.2
11:33 10.0 9.9 99 1022.4 23.5 NE 23.5 0.0 0.2
11:34 10.1 10.0 99 1022.3 17.4 NW 23.5 0.0 0.2
11:35 10.1 10.0 99 1022.3 18.3 N 23.5 0.0 0.2
11:36 10.2 10.1 99 1022.2 19.0 SW 23.5 0.0 0.2
11:38 10.2 10.1 99 1022.2 22.1 SW 23.5 0.0 0.2
11:39 10.2 10.1 99 1022.3 21.3 SW 23.5 0.0 0.2
11:40 10.2 10.1 99 1022.3 22.1 W 23.5 0.0 0.2
11:41 10.2 10.1 99 1022.3 22.8 WNW 23.5 0.0 0.2
11:42 10.2 10.1 99 1022.3 21.3 SW 23.5 0.0 0.2
11:43 10.2 10.1 99 1022.3 19.7 SW 23.5 0.0 0.2
11:44 10.2 10.1 99 1022.3 18.3 SW 23.5 0.0 0.2
11:45 10.2 10.1 99 1022.2 17.4 SW 23.5 0.0 0.2
11:46 10.3 10.2 99 1022.3 18.3 SW 23.5 0.0 0.2
11:47 10.3 10.2 99 1022.3 11.4 NNE 22.8 0.0 0.2
11:48 10.3 10.2 99 1022.3 19.7 NNE 22.8 0.0 0.2
11:49 10.3 10.2 99 1022.2 20.6 N 22.8 0.0 0.2
11:50 10.3 10.2 99 1022.2 16.8 WNW 22.8 0.0 0.2
11:51 10.3 10.2 99 1022.2 13.6 NW 22.8 0.0 0.2
11:53 10.4 10.3 99 1022.3 17.4 NW 20.6 0.0 0.2
11:54 10.4 10.3 99 1022.2 17.4 NW 20.6 0.0 0.2
11:55 10.4 10.3 99 1022.2 18.3 SW 20.6 0.0 0.2
11:56 10.4 10.3 99 1022.2 17.4 SW 20.6 0.0 0.2
11:57 10.4 10.3 99 1022.3 16.8 NW 20.6 0.0 0.2
11:58 10.4 10.3 99 1022.0 22.1 NW 22.8 0.0 0.2
11:59 10.4 10.3 99 1022.2 15.9 SW 22.8 0.0 0.2
12:00 10.4 10.3 99 1022.0 14.5 NE 22.8 0.0 0.2
12:01 10.4 10.3 99 1022.0 14.5 NE 22.8 0.0 0.2
12:02 10.4 10.3 99 1022.1 14.5 NE 22.8 0.0 0.2
12:03 10.4 10.3 99 1022.2 14.5 NE 22.8 0.0 0.2
12:04 10.4 10.3 99 1022.0 14.5 NE 22.8 0.0 0.2
12:05 10.5 10.4 99 1021.9 18.3 SW 22.8 0.0 0.2
12:07 10.5 10.4 99 1021.9 14.5 SW 24.4 0.0 0.2
12:08 10.5 10.4 99 1022.0 18.3 NW 24.4 0.0 0.2
12:09 10.6 10.5 99 1022.0 22.8 WSW 24.4 0.0 0.2
12:10 10.6 10.5 99 1022.0 22.8 WSW 24.4 0.0 0.2
12:11 10.6 10.5 99 1021.9 25.9 NW 25.9 0.0 0.2
12:12 10.6 10.5 99 1021.9 24.4 SW 25.9 0.0 0.2
12:13 10.7 10.6 99 1022.0 24.4 NW 25.9 0.0 0.2
12:14 10.7 10.6 99 1021.8 19.7 W 25.9 0.0 0.2
12:15 10.7 10.6 99 1021.8 19.7 W 25.9 0.0 0.2
12:16 10.7 10.6 99 1022.1 19.0 SW 25.9 0.0 0.2
12:17 10.7 10.6 99 1022.0 14.5 W 25.9 0.0 0.2
12:18 10.7 10.6 99 1022.0 14.5 SW 25.9 0.0 0.2
12:19 10.7 10.6 99 1022.0 12.1 NW 25.9 0.0 0.2
12:21 10.7 10.6 99 1021.9 13.0 SW 24.4 0.0 0.2
12:22 10.7 10.6 99 1021.8 16.8 SW 24.4 0.0 0.2
12:23 10.7 10.6 99 1022.0 13.6 WSW 20.6 0.0 0.2
12:24 10.7 10.6 99 1022.0 13.6 WSW 19.7 0.0 0.2
12:25 10.7 10.6 99 1021.8 20.6 NW 20.6 0.0 0.2
12:26 10.6 10.5 99 1021.7 17.4 W 20.6 0.0 0.2
12:27 10.6 10.5 99 1021.7 22.1 NNW 22.1 0.0 0.2
12:28 10.6 10.5 99 1021.8 22.1 WNW 22.1 0.0 0.2
12:29 10.6 10.5 99 1021.9 20.6 W 22.1 0.0 0.2
12:30 10.6 10.5 99 1021.9 19.7 SW 22.1 0.0 0.2
12:31 10.5 10.4 99 1021.9 16.8 WSW 22.1 0.0 0.2
12:32 10.5 10.4 99 1021.8 19.7 N 22.1 0.0 0.2
12:33 10.5 10.4 99 1021.7 17.4 W 22.1 0.0 0.2
12:34 10.5 10.4 99 1021.6 23.5 SW 23.5 0.0 0.2
12:36 10.4 10.3 99 1021.7 18.3 SW 23.5 0.0 0.2
12:37 10.4 10.3 99 1021.6 16.8 WSW 23.5 0.0 0.2
12:38 10.4 10.3 99 1021.6 16.8 SW 23.5 0.0 0.2
12:39 10.4 10.3 99 1021.5 22.8 S 23.5 0.0 0.2
12:40 10.4 10.3 99 1021.6 13.6 NW 23.5 0.0 0.2
12:41 10.4 10.3 99 1021.7 17.4 WSW 23.5 0.0 0.2
12:42 10.4 10.3 99 1021.6 19.7 WSW 23.5 0.0 0.2
12:43 10.4 10.3 99 1021.5 14.5 W 23.5 0.0 0.2
12:44 10.4 10.3 99 1021.6 17.4 SW 23.5 0.0 0.2
12:45 10.5 10.4 99 1021.4 22.1 SW 23.5 0.0 0.2
12:46 10.4 10.1 98 1021.3 28.2 SW 28.2 0.0 0.2
12:47 10.4 10.1 98 1021.4 17.4 NW 28.2 0.0 0.2
12:48 10.4 10.1 98 1021.5 18.3 W 28.2 0.0 0.2
12:49 10.4 10.1 98 1021.5 15.2 NNW 28.2 0.0 0.2
12:50 10.4 10.1 98 1021.5 15.2 NNW 28.2 0.0 0.2
12:51 10.4 10.1 98 1021.5 19.0 SW 28.2 0.0 0.2
12:52 10.4 10.1 98 1021.6 17.4 W 28.2 0.0 0.2
12:53 10.4 10.1 98 1021.6 18.3 SW 28.2 0.0 0.2
12:54 10.4 10.1 98 1021.3 17.4 SW 28.2 0.0 0.2
12:55 10.4 10.1 98 1021.5 17.4 SW 28.2 0.0 0.2
12:56 10.4 10.1 98 1021.5 19.0 S 28.2 0.0 0.2
12:57 10.4 10.1 98 1021.5 22.1 SW 22.1 0.0 0.2
12:58 10.4 10.1 98 1021.4 15.9 SSW 22.1 0.0 0.2
12:59 10.4 10.1 98 1021.4 17.4 SW 22.1 0.0 0.2
13:00 10.4 10.1 98 1021.5 17.4 SW 22.1 0.0 0.2
13:02 10.3 10.0 98 1021.4 22.1 NW 22.1 0.0 0.2
13:03 10.3 10.0 98 1021.3 18.3 NW 22.1 0.0 0.2
13:04 10.3 10.0 98 1021.3 15.2 SW 22.1 0.0 0.2
13:05 10.3 10.0 98 1021.2 22.1 W 22.1 0.0 0.2
13:06 10.2 9.9 98 1021.2 18.3 SW 22.1 0.0 0.2
13:07 10.2 9.9 98 1021.2 22.8 WSW 22.8 0.0 0.2
13:08 10.2 9.9 98 1021.2 19.7 W 22.8 0.0 0.2
13:09 10.2 9.9 98 1021.2 19.7 W 22.8 0.0 0.2
13:10 10.2 9.9 98 1021.1 19.7 SW 22.8 0.0 0.2
13:11 10.2 9.9 98 1021.2 20.6 WNW 22.8 0.0 0.2
13:12 10.2 9.9 98 1021.3 16.8 WNW 22.8 0.0 0.2
13:13 10.2 9.9 98 1021.3 15.2 N 22.8 0.0 0.2
13:14 10.2 9.9 98 1021.3 22.8 NW 26.6 0.0 0.2
13:15 10.2 9.9 98 1021.2 23.5 SW 26.6 0.0 0.2
13:16 10.2 9.9 98 1021.2 22.8 SW 26.6 0.0 0.2
13:17 10.1 9.8 98 1021.2 19.7 SW 26.6 0.0 0.2
13:18 10.1 9.8 98 1021.3 18.3 W 26.6 0.0 0.2
13:19 10.1 9.8 98 1021.1 20.6 SW 26.6 0.0 0.2
13:21 10.1 9.8 98 1021.0 28.9 N 28.9 0.0 0.2
13:22 10.1 9.8 98 1021.1 19.0 WNW 28.9 0.0 0.2
13:23 10.1 9.8 98 1021.1 21.3 WSW 28.9 0.0 0.2
13:24 10.1 9.8 98 1021.2 21.3 W 28.9 0.0 0.2
13:25 10.1 9.8 98 1021.2 21.3 W 28.9 0.0 0.2
13:26 10.1 9.8 98 1021.0 23.5 SW 28.9 0.0 0.2
13:27 10.1 9.6 97 1021.1 28.9 NW 28.9 0.0 0.2
13:28 10.1 9.6 97 1021.3 18.3 SW 28.9 0.0 0.2
13:29 10.1 9.6 97 1021.0 21.3 NNW 28.9 0.0 0.2
13:30 10.1 9.8 98 1021.0 19.0 SW 28.9 0.0 0.2
13:31 10.1 9.6 97 1021.1 19.7 NW 28.9 0.0 0.2
13:32 10.1 9.6 97 1020.9 19.7 SW 28.9 0.0 0.2
13:33 10.1 9.6 97 1021.1 22.1 SW 28.9 0.0 0.2
13:34 10.1 9.6 97 1021.1 20.6 W 28.9 0.0 0.2
13:35 10.1 9.6 97 1021.0 20.6 NW 28.9 0.0 0.2
13:37 10.1 9.6 97 1021.0 17.4 W 22.1 0.0 0.2
13:38 10.1 9.6 97 1020.9 17.4 NW 22.1 0.0 0.2
13:39 10.1 9.6 97 1020.9 15.9 NW 22.1 0.0 0.2
13:40 10.1 9.6 97 1020.9 15.9 NW 22.1 0.0 0.2
13:41 10.1 9.6 97 1020.8 22.8 N 22.8 0.0 0.2
13:42 10.1 9.6 97 1020.9 26.6 SW 26.6 0.0 0.2
13:43 10.1 9.6 97 1020.7 20.6 SW 26.6 0.0 0.2
13:44 10.1 9.6 97 1020.8 19.7 W 26.6 0.0 0.2
13:45 10.1 9.6 97 1020.8 17.4 NW 26.6 0.0 0.2
13:46 10.1 9.6 97 1020.8 21.3 WSW 26.6 0.0 0.2
13:47 10.1 9.6 97 1020.8 18.3 WNW 26.6 0.0 0.2
13:48 10.1 9.6 97 1020.8 17.4 WSW 26.6 0.0 0.2
13:49 10.1 9.6 97 1020.7 20.6 N 26.6 0.0 0.2
13:50 10.1 9.6 97 1020.6 22.1 SW 26.6 0.0 0.2
13:51 10.1 9.6 97 1020.4 21.3 NW 26.6 0.0 0.2
13:52 10.1 9.6 97 1020.6 24.4 SW 24.4 0.0 0.2
13:54 10.1 9.6 97 1020.6 17.4 SW 24.4 0.0 0.2
13:55 10.1 9.6 97 1020.5 25.1 W 25.1 0.0 0.2
13:56 10.1 9.6 97 1020.5 24.4 SW 25.1 0.0 0.2
13:57 10.1 9.6 97 1020.5 24.4 SW 25.1 0.0 0.2
13:58 10.1 9.6 97 1020.3 21.3 WSW 25.1 0.0 0.2
13:59 10.1 9.6 97 1020.3 19.0 SW 25.1 0.0 0.2
14:00 10.1 9.6 97 1020.3 14.5 W 25.1 0.0 0.2
14:01 10.1 9.6 97 1020.3 14.5 W 25.1 0.0 0.2
14:02 10.1 9.6 97 1020.1 19.0 WSW 25.1 0.0 0.2
14:03 10.1 9.6 97 1020.4 17.4 NW 25.1 0.0 0.2
14:04 10.1 9.6 97 1020.3 15.2 SW 25.1 0.0 0.2
14:05 10.1 9.6 97 1020.4 15.2 SW 25.1 0.0 0.2
14:06 10.1 9.6 97 1020.4 19.0 WSW 24.4 0.0 0.2
14:07 10.1 9.6 97 1020.3 20.6 NW 21.3 0.0 0.2
14:09 10.0 9.5 97 1020.5 15.9 W 20.6 0.0 0.2
14:10 10.0 9.5 97 1020.5 16.8 S 20.6 0.0 0.2
14:11 10.0 9.5 97 1020.5 17.4 SW 20.6 0.0 0.2
14:12 10.0 9.5 97 1020.6 16.8 WSW 20.6 0.0 0.2
14:13 10.0 9.5 97 1020.7 13.0 SW 20.6 0.0 0.2
14:14 10.0 9.5 97 1020.5 22.1 WNW 22.1 0.0 0.2
14:15 10.0 9.5 97 1020.5 20.6 SW 22.1 0.0 0.2
14:16 10.0 9.4 96 1020.5 15.9 SE 22.1 0.0 0.2
14:17 10.0 9.5 97 1020.4 19.0 NW 22.1 0.0 0.2
14:18 10.0 9.5 97 1020.5 21.3 SW 22.1 0.0 0.2
14:19 10.0 9.5 97 1020.3 21.3 SW 22.1 0.0 0.2
14:20 10.0 9.5 97 1020.3 15.9 SW 22.1 0.0 0.2
14:21 10.0 9.5 97 1020.4 16.8 SW 25.1 0.0 0.2
14:22 10.0 9.5 97 1020.2 16.8 WNW 25.1 0.0 0.2
14:23 10.0 9.5 97 1020.3 19.0 SW 25.1 0.0 0.2
14:24 10.0 9.5 97 1020.3 23.5 SW 25.1 0.0 0.2
14:26 10.0 9.5 97 1020.3 20.6 WNW 25.1 0.0 0.2
14:27 10.0 9.5 97 1020.4 18.3 W 25.1 0.0 0.2
14:28 10.0 9.5 97 1020.3 19.0 NW 25.1 0.0 0.2
14:29 10.0 9.4 96 1020.3 22.8 NW 25.1 0.0 0.2
14:30 10.0 9.5 97 1020.3 15.9 NW 25.1 0.0 0.2
14:31 10.0 9.5 97 1020.4 21.3 SW 23.5 0.0 0.2
14:32 10.0 9.4 96 1020.3 17.4 S 23.5 0.0 0.2
14:33 10.0 9.5 97 1020.4 17.4 SW 23.5 0.0 0.2
14:34 10.0 9.4 96 1020.3 14.5 SW 23.5 0.0 0.2
14:35 10.0 9.4 96 1020.3 15.9 SW 23.5 0.0 0.2
14:36 10.0 9.4 96 1020.2 25.9 W 25.9 0.0 0.2
14:37 10.0 9.4 96 1020.4 13.6 W 25.9 0.0 0.2
14:38 10.0 9.4 96 1020.3 17.4 W 25.9 0.0 0.2
14:39 9.9 9.3 96 1020.2 15.2 SW 25.9 0.0 0.2
14:41 9.9 9.3 96 1020.5 14.5 SW 25.9 0.0 0.2
14:42 9.9 9.3 96 1020.4 13.6 NW 25.9 0.0 0.2
14:43 9.9 9.3 96 1020.4 16.8 SW 25.9 0.0 0.2
14:44 9.9 9.3 96 1020.4 16.8 SW 25.9 0.0 0.2
14:45 9.9 9.3 96 1020.5 16.8 SW 25.9 0.0 0.2
14:46 9.9 9.3 96 1020.3 22.8 SW 24.4 0.0 0.2
14:47 9.9 9.3 96 1020.3 19.7 SW 22.8 0.0 0.2
14:48 9.9 9.3 96 1020.2 19.7 WNW 22.8 0.0 0.2
14:49 9.8 9.3 97 1020.2 14.5 SW 22.8 0.0 0.2
14:50 9.9 9.3 96 1020.1 15.2 NW 22.8 0.0 0.2
14:51 9.8 9.2 96 1020.2 15.9 WSW 22.8 0.0 0.2
14:52 9.8 9.2 96 1020.2 13.0 SW 22.8 0.0 0.2
14:53 9.8 9.3 97 1020.1 14.5 SW 22.8 0.0 0.2
14:54 9.8 9.2 96 1020.2 15.2 NW 22.8 0.0 0.2
14:55 9.8 9.3 97 1020.1 18.3 NNW 22.8 0.0 0.2
14:57 9.8 9.3 97 1020.1 15.2 SW 22.1 0.0 0.2
14:58 9.8 9.3 97 1019.9 16.8 NW 22.1 0.0 0.2
14:59 9.8 9.3 97 1020.1 17.4 NW 22.1 0.0 0.2
15:00 9.8 9.3 97 1020.0 21.3 NW 22.1 0.0 0.2
15:01 9.8 9.3 97 1020.0 21.3 NW 22.1 0.0 0.2
15:02 9.9 9.4 97 1019.9 18.3 W 22.1 0.0 0.2
15:03 9.8 9.3 97 1019.8 21.3 NW 21.3 0.0 0.2
15:04 9.8 9.3 97 1019.8 21.3 SW 21.3 0.0 0.2
15:05 9.8 9.3 97 1019.9 15.9 WSW 21.3 0.0 0.2
15:06 9.8 9.3 97 1020.0 21.3 WNW 21.3 0.0 0.2
15:07 9.9 9.4 97 1020.0 19.0 SW 21.3 0.0 0.2
15:08 9.9 9.4 97 1020.0 20.6 N 21.3 0.0 0.2
15:09 9.9 9.4 97 1019.9 23.5 S 23.5 0.0 0.2
15:10 9.9 9.4 97 1020.1 18.3 NW 23.5 0.0 0.2
15:11 9.9 9.4 97 1020.1 18.3 SW 23.5 0.0 0.2
15:12 9.9 9.4 97 1020.2 15.9 W 23.5 0.0 0.2
15:13 9.9 9.4 97 1020.2 20.6 SW 23.5 0.0 0.2
15:14 9.9 9.4 97 1020.1 19.7 WSW 23.5 0.0 0.2
15:15 9.9 9.4 97 1020.3 23.5 NW 23.5 0.0 0.2
15:16 9.9 9.4 97 1020.4 19.0 NW 23.5 0.0 0.2
15:17 9.9 9.4 97 1020.3 19.7 NNW 23.5 0.0 0.2
15:18 9.9 9.4 97 1020.2 19.0 NW 23.5 0.0 0.2
15:20 9.9 9.4 97 1020.3 17.4 W 23.5 0.0 0.2
15:21 9.9 9.4 97 1020.5 13.0 S 23.5 0.0 0.2
15:22 9.9 9.4 97 1020.3 14.5 SW 23.5 0.0 0.2
15:23 10.0 9.5 97 1020.4 20.6 NW 23.5 0.0 0.2
15:24 10.0 9.5 97 1020.3 17.4 NW 23.5 0.0 0.2
15:25 10.0 9.5 97 1020.2 22.1 SW 23.5 0.0 0.2
15:26 10.0 9.5 97 1020.1 18.3 WNW 22.1 0.0 0.2
15:27 10.0 9.5 97 1020.3 16.8 NW 22.1 0.0 0.2
15:28 10.0 9.5 97 1020.4 13.6 NW 22.1 0.0 0.2
15:29 10.0 9.5 97 1020.4 15.2 SW 22.1 0.0 0.2
15:30 10.0 9.5 97 1020.3 16.8 NW 22.1 0.0 0.2
15:31 10.0 9.5 97 1020.2 18.3 NW 22.1 0.0 0.2
15:32 10.0 9.5 97 1020.3 19.0 SW 22.1 0.0 0.2
15:33 10.0 9.5 97 1020.4 22.8 SW 22.8 0.0 0.2
15:35 10.0 9.5 97 1020.2 15.9 SW 22.8 0.0 0.2
15:36 9.9 9.4 97 1020.2 19.7 SW 22.8 0.0 0.2
15:37 9.9 9.4 97 1020.2 19.7 SW 22.8 0.0 0.2
15:38 9.9 9.4 97 1020.1 21.3 SW 22.8 0.0 0.2
15:39 9.9 9.4 97 1020.2 19.0 NW 22.8 0.0 0.2
15:40 9.9 9.4 97 1020.2 19.0 NW 22.8 0.0 0.2
15:41 9.9 9.4 97 1020.0 16.8 SW 22.8 0.0 0.2
15:42 9.9 9.4 97 1020.1 16.8 SW 22.8 0.0 0.2
15:43 9.9 9.4 97 1020.1 13.6 SW 22.8 0.0 0.2
15:44 9.9 9.4 97 1020.0 14.5 SW 21.3 0.0 0.2
15:45 9.9 9.4 97 1020.1 15.2 NW 21.3 0.0 0.2
15:46 9.9 9.4 97 1020.1 16.8 W 21.3 0.0 0.2
15:47 9.9 9.4 97 1020.2 15.2 NNW 21.3 0.0 0.2
15:48 9.9 9.4 97 1020.1 17.4 WSW 19.0 0.0 0.2
15:50 9.9 9.4 97 1020.1 17.4 SW 19.7 0.0 0.2
15:51 9.9 9.4 97 1019.9 23.5 WNW 23.5 0.0 0.2
15:52 9.9 9.4 97 1020.2 22.1 WNW 23.5 0.0 0.2
15:53 9.9 9.4 97 1020.2 22.1 WNW 23.5 0.0 0.2
15:54 9.9 9.4 97 1020.2 10.7 SW 23.5 0.0 0.2
15:55 9.9 9.4 97 1020.3 10.7 WNW 23.5 0.0 0.2
15:56 9.9 9.4 97 1020.5 13.6 NW 23.5 0.0 0.2
15:57 9.9 9.4 97 1020.3 12.1 SW 23.5 0.0 0.2
15:58 9.9 9.4 97 1020.3 15.2 W 23.5 0.0 0.2
15:59 9.9 9.4 97 1020.1 17.4 SW 23.5 0.0 0.2
16:00 9.9 9.4 97 1020.3 20.6 SW 23.5 0.0 0.2
16:01 9.9 9.4 97 1020.3 19.0 WSW 23.5 0.0 0.2
16:02 9.9 9.4 97 1020.3 22.1 SW 22.1 0.0 0.2
16:03 9.9 9.4 97 1020.2 22.1 W 22.1 0.0 0.2
16:06 9.8 9.3 97 1020.3 23.5 W 23.5 0.0 0.2
16:07 9.8 9.3 97 1020.4 18.3 NW 23.5 0.0 0.2
16:08 9.8 9.5 98 1020.3 19.0 N 23.5 0.0 0.2
16:09 9.9 9.6 98 1020.3 16.8 SW 23.5 0.0 0.2
16:10 9.8 9.3 97 1020.2 19.7 SW 23.5 0.0 0.2
16:11 9.8 9.5 98 1020.3 18.3 WSW 23.5 0.0 0.2
16:12 9.8 9.5 98 1020.4 24.4 SW 24.4 0.0 0.2
16:13 9.8 9.5 98 1020.3 20.6 NW 24.4 0.0 0.2
16:14 9.8 9.5 98 1020.2 19.7 SW 24.4 0.0 0.2
16:15 9.8 9.5 98 1020.3 19.7 WSW 24.4 0.0 0.2
16:16 9.8 9.5 98 1020.3 19.0 S 24.4 0.0 0.2
16:17 9.8 9.5 98 1020.2 19.0 WNW 24.4 0.0 0.2
16:18 9.8 9.5 98 1020.3 23.5 W 24.4 0.0 0.2
16:19 9.8 9.5 98 1020.5 23.5 WSW 24.4 0.0 0.2
16:21 9.8 9.5 98 1020.2 21.3 SW 24.4 0.0 0.2
16:22 9.8 9.5 98 1020.1 15.9 W 24.4 0.0 0.2
16:23 9.8 9.5 98 1020.2 19.7 W 24.4 0.0 0.2
16:24 9.7 9.4 98 1020.2 20.6 WNW 23.5 0.0 0.2
16:25 9.5 9.2 98 1020.1 24.4 SW 24.4 0.0 0.2
16:26 9.7 9.4 98 1020.2 13.6 WSW 24.4 0.0 0.2
16:27 9.7 9.4 98 1020.2 16.8 W 24.4 0.0 0.2
16:28 9.7 9.4 98 1020.3 14.5 SW 24.4 0.0 0.2
16:29 9.7 9.4 98 1020.2 18.3 W 24.4 0.0 0.2
16:30 9.7 9.4 98 1020.2 16.8 SW 24.4 0.0 0.2
16:31 9.7 9.4 98 1019.9 19.0 SW 24.4 0.0 0.2
16:32 9.7 9.4 98 1020.1 19.7 SW 24.4 0.0 0.2
16:33 9.7 9.4 98 1020.1 16.8 SW 24.4 0.0 0.2
16:34 9.7 9.4 98 1020.0 22.8 SW 24.4 0.0 0.2
16:35 9.7 9.4 98 1020.0 14.5 W 22.8 0.0 0.2
16:37 9.6 9.3 98 1020.0 19.7 WSW 22.8 0.0 0.2
16:38 9.6 9.3 98 1019.7 25.1 SW 25.1 0.0 0.2
16:39 9.6 9.3 98 1020.0 23.5 W 25.1 0.0 0.2
16:40 9.6 9.3 98 1019.8 16.8 WNW 25.1 0.0 0.2
16:41 9.6 9.3 98 1020.0 17.4 SW 25.1 0.0 0.2
16:42 9.6 9.3 98 1019.9 22.1 NW 25.1 0.0 0.2
16:43 9.6 9.3 98 1020.0 19.0 SW 25.1 0.0 0.2
16:44 9.6 9.3 98 1019.9 22.1 WSW 25.1 0.0 0.2
16:45 9.6 9.3 98 1019.9 22.1 WSW 25.1 0.0 0.2
16:46 9.6 9.5 99 1019.9 16.8 WSW 25.1 0.0 0.2
16:47 9.6 9.5 99 1020.0 15.9 SW 25.1 0.0 0.2
16:48 9.6 9.5 99 1020.2 28.2 WNW 28.2 0.0 0.2
16:49 9.6 9.5 99 1019.9 19.0 WSW 28.2 0.0 0.2
16:50 9.6 9.5 99 1020.1 25.1 SW 28.2 0.0 0.2
16:51 9.6 9.5 99 1019.8 22.1 SW 28.2 0.0 0.2
16:53 9.6 9.5 99 1020.1 13.6 NW 28.2 0.0 0.2
16:54 9.6 9.5 99 1019.9 21.3 NW 28.2 0.0 0.2
16:55 9.6 9.5 99 1019.9 21.3 SW 28.2 0.0 0.2
16:56 9.5 9.4 99 1019.9 19.7 WSW 28.2 0.0 0.2
16:57 9.5 9.4 99 1019.9 22.1 SW 28.2 0.0 0.2
16:58 9.5 9.4 99 1019.7 16.8 W 28.2 0.0 0.2
16:59 9.5 9.4 99 1019.6 19.0 SW 25.1 0.0 0.2
17:00 9.5 9.4 99 1019.7 17.4 W 25.1 0.0 0.2
17:01 9.5 9.4 99 1019.8 17.4 W 22.1 0.0 0.2
17:02 9.6 9.5 99 1019.6 22.8 SW 24.4 0.0 0.2
17:03 9.6 9.5 99 1019.8 19.7 SW 24.4 0.0 0.2
17:04 9.6 9.5 99 1019.6 19.0 NW 24.4 0.0 0.2
17:05 9.6 9.5 99 1019.7 21.3 SW 24.4 0.0 0.2
17:06 9.5 9.4 99 1019.8 15.9 WSW 24.4 0.0 0.2
17:07 9.6 9.5 99 1019.7 14.5 SW 24.4 0.0 0.2
17:08 9.6 9.5 99 1019.8 16.8 WNW 24.4 0.0 0.2
17:09 9.5 9.4 99 1019.7 17.4 SW 24.4 0.0 0.2
17:10 9.5 9.4 99 1019.7 22.8 SW 24.4 0.0 0.2
17:11 9.6 9.5 99 1019.6 24.4 NW 25.9 0.0 0.2
17:12 9.6 9.5 99 1019.6 21.3 SW 25.9 0.0 0.2
17:13 9.6 9.5 99 1019.4 22.8 SW 25.9 0.0 0.2
17:15 9.5 9.4 99 1019.6 22.8 NW 25.9 0.0 0.2
17:16 9.5 9.4 99 1019.6 22.8 NW 25.9 0.0 0.2
17:17 9.5 9.4 99 1019.8 19.7 SW 25.9 0.0 0.2
17:18 9.5 9.4 99 1019.6 21.3 SW 25.9 0.0 0.2
17:19 9.5 9.4 99 1019.8 14.5 SSW 25.9 0.0 0.2
17:20 9.5 9.4 99 1019.7 19.7 WSW 25.9 0.0 0.2
17:21 9.5 9.4 99 1019.8 18.3 WSW 25.9 0.0 0.2
17:22 9.5 9.4 99 1019.7 22.8 SW 25.1 0.0 0.2
17:23 9.5 9.4 99 1019.8 19.0 NW 25.1 0.0 0.2
17:24 9.5 9.4 99 1019.8 18.3 NW 25.1 0.0 0.2
17:25 9.5 9.4 99 1019.8 15.9 W 25.1 0.0 0.2
17:26 9.5 9.4 99 1019.8 22.8 NW 22.8 0.0 0.2
17:27 9.6 9.5 99 1019.8 19.7 NW 22.8 0.0 0.2
17:28 9.6 9.5 99 1019.9 18.3 N 22.8 0.0 0.2
17:29 9.6 9.5 99 1020.0 20.6 NW 22.8 0.0 0.2
17:30 9.6 9.5 99 1020.0 14.5 SW 22.8 0.0 0.2
17:31 9.6 9.5 99 1020.1 24.4 SW 24.4 0.0 0.2
17:32 9.6 9.5 99 1019.8 25.9 NW 25.9 0.0 0.2
17:33 9.6 9.5 99 1020.0 18.3 NW 25.9 0.0 0.2
17:34 9.6 9.5 99 1020.0 14.5 SW 25.9 0.0 0.2
17:35 9.6 9.5 99 1020.3 16.8 W 25.9 0.0 0.2
17:36 9.6 9.5 99 1020.2 15.9 NW 25.9 0.0 0.2
17:37 9.6 9.5 99 1020.3 18.3 SW 25.9 0.0 0.2
17:39 9.6 9.5 99 1020.2 17.4 N 25.9 0.0 0.2
17:40 9.6 9.5 99 1020.2 15.9 NW 25.9 0.0 0.2
17:41 9.6 9.5 99 1020.2 13.0 W 25.9 0.0 0.2
17:42 9.6 9.5 99 1020.1 15.2 SW 25.9 0.0 0.2
17:43 9.6 9.5 99 1020.3 16.8 SW 18.3 0.0 0.2
17:44 9.6 9.5 99 1020.0 18.3 W 18.3 0.0 0.2
17:45 9.6 9.5 99 1020.1 22.8 SW 22.8 0.0 0.2
17:46 9.6 9.5 99 1020.0 19.0 NW 22.8 0.0 0.2
17:47 9.6 9.5 99 1020.0 18.3 SW 22.8 0.0 0.2
17:48 9.6 9.5 99 1019.9 19.0 S 22.8 0.0 0.2
17:49 9.6 9.5 99 1020.0 19.0 W 22.8 0.0 0.2
17:50 9.6 9.5 99 1019.8 19.0 NW 22.8 0.0 0.2
17:51 9.6 9.5 99 1019.9 19.0 SW 22.8 0.0 0.2
17:52 9.6 9.5 99 1019.8 22.1 WNW 22.8 0.0 0.2
17:54 9.6 9.5 99 1019.8 20.6 WNW 22.8 0.0 0.2
17:55 9.5 9.4 99 1019.8 22.1 N 22.8 0.0 0.2
17:56 9.6 9.5 99 1019.7 20.6 S 22.1 0.0 0.2
17:57 9.6 9.5 99 1019.7 22.1 SW 22.1 0.0 0.2
17:58 9.6 9.5 99 1019.7 19.7 W 22.1 0.0 0.2
17:59 9.6 9.5 99 1019.7 15.9 SW 22.1 0.0 0.2
18:00 9.6 9.5 99 1019.6 14.5 NW 22.1 0.0 0.2
18:01 9.6 9.5 99 1019.8 14.5 NW 22.1 0.0 0.2
18:02 9.7 9.6 99 1019.6 19.7 NNW 22.1 0.0 0.2
18:03 9.6 9.5 99 1019.7 19.0 NW 22.1 0.0 0.2
18:04 9.6 9.5 99 1019.9 19.7 SW 22.1 0.0 0.2
18:05 9.6 9.5 99 1019.9 14.5 WSW 22.1 0.0 0.2
18:06 9.6 9.5 99 1019.7 23.5 WSW 23.5 0.0 0.2
18:07 9.6 9.5 99 1019.8 13.6 SE 23.5 0.0 0.2
18:08 9.6 9.5 99 1020.0 13.6 SW 23.5 0.0 0.2
18:09 9.6 9.5 99 1020.1 17.4 SW 23.5 0.0 0.2
18:11 9.6 9.5 99 1020.3 16.8 W 23.5 0.0 0.2
18:12 9.6 9.5 99 1020.3 13.0 SW 23.5 0.0 0.2
18:13 9.6 9.5 99 1020.1 17.4 WNW 23.5 0.0 0.2
18:14 9.6 9.5 99 1020.2 13.6 SW 23.5 0.0 0.2
18:15 9.6 9.5 99 1020.2 13.0 WNW 23.5 0.0 0.2
18:16 9.6 9.5 99 1020.0 15.2 SE 20.6 0.0 0.2
18:17 9.7 9.6 99 1020.1 15.2 SW 20.6 0.0 0.2
18:18 9.7 9.6 99 1020.1 15.2 N 18.3 0.0 0.2
18:19 9.7 9.6 99 1020.1 16.8 N 18.3 0.0 0.2
18:20 9.7 9.6 99 1020.2 12.1 SW 17.4 0.0 0.2
18:21 9.7 9.6 99 1020.2 18.3 W 19.7 0.0 0.2
18:22 9.7 9.6 99 1020.2 13.6 NW 19.7 0.0 0.2
18:23 9.7 9.6 99 1020.2 14.5 WNW 19.7 0.0 0.2
18:24 9.7 9.6 99 1020.3 16.8 NW 19.7 0.0 0.2
18:25 9.7 9.6 99 1020.2 12.1 NW 19.7 0.0 0.2
18:26 9.7 9.6 99 1020.3 16.8 S 19.7 0.0 0.2
18:27 9.7 9.6 99 1020.3 12.1 S 19.7 0.0 0.2
18:28 9.7 9.6 99 1020.3 13.6 SW 19.7 0.0 0.2
18:29 9.7 9.6 99 1020.4 14.5 WNW 19.7 0.0 0.2
18:30 9.7 9.6 99 1020.4 10.7 NW 19.7 0.0 0.2
18:31 9.7 9.6 99 1020.3 17.4 NW 19.7 0.0 0.2
18:32 9.7 9.6 99 1020.4 17.4 SW 17.4 0.0 0.2
18:33 9.7 9.6 99 1020.4 19.7 SW 19.7 0.0 0.2
18:35 9.7 9.6 99 1020.5 14.5 SW 19.7 0.0 0.2
18:36 9.7 9.6 99 1020.3 13.6 S 19.7 0.0 0.2
18:37 9.7 9.6 99 1020.3 13.6 SW 19.7 0.0 0.2
18:38 9.7 9.6 99 1020.3 14.5 WSW 19.7 0.0 0.2
18:39 9.7 9.6 99 1020.4 10.7 WNW 19.7 0.0 0.2
18:40 9.7 9.6 99 1020.3 19.7 SW 19.7 0.0 0.2
18:41 9.8 9.7 99 1020.2 16.8 SW 19.7 0.0 0.2
18:42 9.8 9.7 99 1020.3 15.9 W 19.7 0.0 0.2
18:43 9.8 9.7 99 1020.0 14.5 NW 19.7 0.0 0.2
18:44 9.8 9.7 99 1020.2 13.6 SW 19.7 0.0 0.2
18:45 9.8 9.7 99 1020.2 15.9 NW 19.7 0.0 0.2
18:46 9.8 9.7 99 1020.1 17.4 W 19.7 0.0 0.2
18:47 9.8 9.7 99 1020.1 17.4 W 19.7 0.0 0.2
18:48 9.8 9.7 99 1020.2 15.2 S 19.7 0.0 0.2
18:49 9.8 9.7 99 1020.1 11.4 S 19.7 0.0 0.2
18:50 9.8 9.7 99 1020.2 19.0 WSW 19.7 0.0 0.2
18:51 9.8 9.7 99 1020.0 20.6 NW 20.6 0.0 0.2
18:52 9.9 9.8 99 1020.0 17.4 NW 21.3 0.0 0.2
18:53 9.8 9.7 99 1020.0 19.0 W 21.3 0.0 0.2
18:54 9.9 9.8 99 1020.1 19.0 W 21.3 0.0 0.2
18:55 9.9 9.8 99 1020.1 17.4 NW 21.3 0.0 0.2
18:56 9.9 9.8 99 1020.1 12.1 WNW 21.3 0.0 0.2
18:57 9.9 9.8 99 1020.1 19.0 NW 21.3 0.0 0.2
18:58 9.9 9.8 99 1020.1 16.8 NW 21.3 0.0 0.2
18:59 9.9 9.8 99 1020.3 16.8 W 21.3 0.0 0.2
19:00 9.9 9.8 99 1020.1 19.0 NW 21.3 0.0 0.2
19:01 9.9 9.8 99 1020.1 17.4 W 21.3 0.0 0.2
19:02 9.9 9.8 99 1020.1 15.9 WSW 19.0 0.0 0.2
19:03 9.9 9.8 99 1020.1 19.0 SW 19.0 0.0 0.2
19:04 9.9 9.8 99 1020.2 18.3 SW 19.0 0.0 0.2
19:05 9.9 9.8 99 1020.3 16.8 WSW 19.0 0.0 0.2
19:06 9.9 9.8 99 1020.3 16.8 NW 19.0 0.0 0.2
19:07 9.9 9.8 99 1020.3 9.8 W 19.0 0.0 0.2
19:08 9.9 9.8 99 1020.2 12.1 SW 19.0 0.0 0.2
19:09 9.9 9.8 99 1020.3 13.6 NW 19.0 0.0 0.2
19:10 10.0 9.9 99 1020.3 17.4 SW 19.0 0.0 0.2
19:11 9.9 9.8 99 1020.4 13.6 W 19.0 0.0 0.2
19:12 9.9 9.8 99 1020.4 15.9 SW 19.0 0.0 0.2
19:13 10.0 9.9 99 1020.3 13.0 E 19.0 0.0 0.2
19:14 10.0 9.9 99 1020.3 11.4 SSW 18.3 0.0 0.2
19:15 10.0 9.9 99 1020.2 16.8 W 17.4 0.0 0.2
19:16 10.0 9.9 99 1020.2 13.0 N 17.4 0.0 0.2
19:17 10.0 9.9 99 1020.4 22.1 SW 22.1 0.0 0.2
19:18 10.0 9.9 99 1020.3 18.3 NW 22.1 0.0 0.2
19:19 10.0 9.9 99 1020.3 10.7 SW 22.1 0.0 0.2
19:20 10.0 9.9 99 1020.4 17.4 WSW 22.1 0.0 0.2
19:21 10.0 9.9 99 1020.3 15.2 SW 22.1 0.0 0.2
19:22 10.0 9.9 99 1020.4 15.2 SW 22.1 0.0 0.2
19:23 10.0 9.9 99 1020.3 13.6 SW 22.1 0.0 0.2
19:24 10.0 9.9 99 1020.3 13.6 WNW 24.4 0.0 0.2
19:25 10.0 9.9 99 1020.5 13.0 SW 24.4 0.0 0.2
19:26 10.0 9.9 99 1020.3 15.9 NW 24.4 0.0 0.2
19:27 10.0 9.9 99 1020.5 9.8 SW 24.4 0.0 0.2
19:28 10.0 9.9 99 1020.5 16.8 WNW 24.4 0.0 0.2
19:29 10.0 9.9 99 1020.5 18.3 N 24.4 0.0 0.2
19:30 10.0 9.9 99 1020.4 15.2 W 24.4 0.0 0.2
19:31 10.0 9.9 99 1020.2 20.6 WSW 24.4 0.0 0.2
19:32 10.0 9.9 99 1020.5 15.9 SW 24.4 0.0 0.2
19:33 10.0 9.9 99 1020.6 14.5 N 24.4 0.0 0.2
19:34 10.0 9.9 99 1020.4 13.6 SW 20.6 0.0 0.2
19:35 10.0 9.9 99 1020.5 13.0 SW 20.6 0.0 0.2
19:36 10.0 9.9 99 1020.4 13.0 SW 20.6 0.0 0.2
19:37 10.0 9.9 99 1020.3 13.6 NW 20.6 0.0 0.2
19:38 10.0 9.9 99 1020.3 15.2 W 20.6 0.0 0.2
19:39 10.0 9.9 99 1020.3 16.8 SW 20.6 0.0 0.2
19:40 10.0 9.9 99 1020.3 19.7 SW 20.6 0.0 0.2
19:41 10.0 9.9 99 1020.3 15.9 SW 20.6 0.0 0.2
19:42 10.0 9.9 99 1020.3 15.9 SW 19.7 0.0 0.2
19:43 10.0 9.9 99 1020.4 15.9 WSW 19.7 0.0 0.2
19:44 10.0 9.9 99 1020.6 12.1 NW 19.7 0.0 0.2
19:45 10.0 9.9 99 1020.6 12.1 WNW 19.7 0.0 0.2
19:46 10.0 9.9 99 1020.5 13.0 NW 19.7 0.0 0.2
19:47 10.0 9.9 99 1020.4 14.5 NW 19.7 0.0 0.2
19:48 10.0 9.9 99 1020.5 16.8 NE 19.7 0.0 0.2
19:49 10.0 9.9 99 1020.4 18.3 SW 19.7 0.0 0.2
19:50 10.0 9.9 99 1020.6 15.2 SW 19.7 0.0 0.2
19:51 10.0 9.9 99 1020.6 19.7 N 25.9 0.0 0.2
19:52 10.0 9.9 99 1020.3 21.3 SW 25.9 0.0 0.2
19:53 10.1 10.0 99 1020.4 15.9 WNW 25.9 0.0 0.2
19:54 10.1 10.0 99 1020.3 17.4 WSW 25.9 0.0 0.2
19:55 10.1 10.0 99 1020.4 15.2 WSW 25.9 0.0 0.2
19:56 10.0 9.9 99 1020.4 16.8 N 25.9 0.0 0.2
19:57 10.1 10.0 99 1020.6 14.5 WSW 25.9 0.0 0.2
19:58 10.0 9.9 99 1020.5 15.9 SW 25.9 0.0 0.2
19:59 10.1 10.0 99 1020.3 15.9 NW 25.9 0.0 0.2
20:00 10.1 10.0 99 1020.4 16.8 W 25.9 0.0 0.2
20:01 10.1 10.0 99 1020.5 16.8 W 21.3 0.0 0.2
20:02 10.1 10.0 99 1020.6 16.8 W 20.6 0.0 0.2
20:03 10.1 10.0 99 1020.2 16.8 W 20.6 0.0 0.2
20:04 10.1 10.0 99 1020.3 16.8 W 20.6 0.0 0.2
20:05 10.1 10.0 99 1020.3 24.4 NW 24.4 0.0 0.2
20:06 10.1 10.0 99 1020.1 17.4 WNW 24.4 0.0 0.2
20:07 10.1 10.0 99 1019.9 15.9 W 24.4 0.0 0.2
20:08 10.1 10.0 99 1020.0 21.3 SW 24.4 0.0 0.2
20:09 10.1 10.0 99 1020.0 26.6 SW 26.6 0.0 0.2
20:10 10.1 10.0 99 1020.1 21.3 SW 26.6 0.0 0.2
20:11 10.1 10.0 99 1020.3 19.7 WSW 26.6 0.0 0.2
20:12 10.1 10.0 99 1020.2 22.1 SW 26.6 0.0 0.2
20:13 10.1 10.0 99 1020.3 21.3 NW 26.6 0.0 0.2
20:14 10.1 10.0 99 1020.3 13.6 NW 26.6 0.0 0.2
20:15 10.1 10.0 99 1020.4 16.8 N 26.6 0.0 0.2
20:16 10.1 10.0 99 1020.3 17.4 N 26.6 0.0 0.2
20:17 10.1 10.0 99 1020.5 16.8 W 26.6 0.0 0.2
20:18 10.1 10.0 99 1020.4 15.9 NW 26.6 0.0 0.2
20:19 10.1 10.0 99 1020.3 19.0 NW 22.1 0.0 0.2
20:20 10.1 10.0 99 1020.6 19.0 NW 22.1 0.0 0.2
20:21 10.2 10.1 99 1020.4 19.0 SW 22.1 0.0 0.2
20:22 10.2 10.1 99 1020.4 19.7 NW 21.3 0.0 0.2
20:23 10.2 10.1 99 1020.3 13.0 NW 21.3 0.0 0.2
20:24 10.2 10.1 99 1020.4 15.2 NNW 19.7 0.0 0.2
20:25 10.2 10.1 99 1020.2 18.3 W 19.7 0.0 0.2
20:26 10.2 10.1 99 1020.2 13.0 NW 19.7 0.0 0.2
20:27 10.2 10.1 99 1020.2 15.2 NW 19.7 0.0 0.2
20:28 10.2 10.1 99 1020.3 13.6 NW 19.7 0.0 0.2
20:29 10.2 10.1 99 1020.3 13.6 WSW 19.7 0.0 0.2
20:30 10.2 10.1 99 1020.3 13.0 SW 19.7 0.0 0.2
20:31 10.2 10.1 99 1020.2 21.3 SW 21.3 0.0 0.2
20:32 10.2 10.1 99 1020.4 17.4 WSW 21.3 0.0 0.2
20:33 10.2 10.1 99 1020.4 13.0 WNW 21.3 0.0 0.2
20:34 10.2 10.1 99 1020.3 13.6 NW 21.3 0.0 0.2
20:35 10.2 10.1 99 1020.4 21.3 SE 21.3 0.0 0.2
20:36 10.2 10.1 99 1020.4 17.4 W 21.3 0.0 0.2
20:37 10.2 10.1 99 1020.3 19.0 SW 21.3 0.0 0.2
20:38 10.2 10.1 99 1020.3 15.2 SW 21.3 0.0 0.2
20:39 10.2 10.1 99 1020.3 12.1 SW 21.3 0.0 0.2
20:40 10.2 10.1 99 1020.1 14.5 SW 21.3 0.0 0.2
20:41 10.2 10.1 99 1020.1 15.9 SW 21.3 0.0 0.2
20:42 10.2 10.1 99 1020.3 9.8 NW 21.3 0.0 0.2
20:43 10.2 10.1 99 1020.2 15.2 SW 21.3 0.0 0.2
20:44 10.2 10.1 99 1020.2 15.9 SW 21.3 0.0 0.2
20:45 10.2 10.1 99 1020.3 12.1 SW 19.0 0.0 0.2
20:46 10.2 10.1 99 1020.4 7.6 WSW 19.0 0.0 0.2
20:47 10.2 10.1 99 1020.4 18.3 NW 19.0 0.0 0.2
20:48 10.2 10.1 99 1020.4 13.6 NW 19.0 0.0 0.2
20:49 10.2 10.1 99 1020.4 9.8 NW 19.0 0.0 0.2
20:50 10.2 10.1 99 1020.5 10.7 NW 19.0 0.0 0.2
20:51 10.2 10.1 99 1020.5 9.2 N 19.0 0.0 0.2
20:52 10.2 10.1 99 1020.5 14.5 NW 19.0 0.0 0.2
20:53 10.2 10.1 99 1020.4 13.0 NW 19.0 0.0 0.2
20:54 10.2 10.1 99 1020.5 14.5 WSW 19.0 0.0 0.2
20:55 10.2 10.1 99 1020.6 13.0 W 18.3 0.0 0.2
20:56 10.2 10.1 99 1020.5 18.3 NW 18.3 0.0 0.2
20:57 10.2 10.1 99 1020.7 18.3 NW 18.3 0.0 0.2
20:58 10.2 10.1 99 1020.6 15.9 NNW 18.3 0.0 0.2
20:59 10.2 10.1 99 1020.5 16.8 NW 18.3 0.0 0.2
21:00 10.2 10.1 99 1020.5 13.6 SE 18.3 0.0 0.2
21:01 10.2 10.1 99 1020.5 14.5 NW 18.3 0.0 0.2
21:02 10.2 10.1 99 1020.7 14.5 NW 18.3 0.0 0.2
21:03 10.2 10.1 99 1020.8 12.1 NW 18.3 0.0 0.2
21:04 10.2 10.1 99 1020.6 15.9 NE 18.3 0.0 0.2
21:05 10.3 10.2 99 1020.7 19.7 NW 19.7 0.0 0.2
21:06 10.2 10.1 99 1020.8 20.6 NW 20.6 0.0 0.2
21:07 10.2 10.1 99 1020.7 19.7 WNW 20.6 0.0 0.2
21:08 10.2 10.1 99 1020.8 16.8 NW 20.6 0.0 0.2
21:09 10.2 10.1 99 1020.7 16.8 SW 20.6 0.0 0.2
21:10 10.2 10.1 99 1020.7 16.8 NW 20.6 0.0 0.2
21:11 10.2 10.1 99 1020.7 12.1 SW 20.6 0.0 0.2
21:12 10.2 10.1 99 1020.8 9.8 NNW 20.6 0.0 0.2
21:13 10.2 10.1 99 1020.5 18.3 WNW 20.6 0.0 0.2
21:14 10.2 10.1 99 1020.4 18.3 SW 20.6 0.0 0.2
21:15 10.2 10.1 99 1020.7 19.7 SW 20.6 0.0 0.2
21:16 10.2 10.1 99 1020.5 13.6 W 20.6 0.0 0.2
21:17 10.2 10.1 99 1020.7 16.8 NW 19.7 0.0 0.2
21:18 10.2 10.1 99 1020.7 15.9 NW 19.7 0.0 0.2
21:19 10.2 10.1 99 1020.7 14.5 W 19.7 0.0 0.2
21:20 10.2 10.1 99 1020.7 9.8 SW 19.7 0.0 0.2
21:21 10.2 10.1 99 1020.7 15.2 NW 19.7 0.0 0.2
21:22 10.2 10.1 99 1020.7 15.2 NW 19.7 0.0 0.2
21:23 10.2 10.1 99 1020.7 15.9 W 19.7 0.0 0.2
21:24 10.2 10.1 99 1020.6 15.2 NW 19.7 0.0 0.2
21:25 10.2 10.1 99 1020.8 12.1 NW 19.7 0.0 0.2
21:26 10.2 10.1 99 1020.4 13.0 W 17.4 0.0 0.2
21:27 10.2 10.1 99 1020.5 15.9 W 17.4 0.0 0.2
21:28 10.2 10.1 99 1020.5 14.5 W 17.4 0.0 0.2
21:29 10.2 10.1 99 1020.6 11.4 W 17.4 0.0 0.2
21:30 10.2 10.1 99 1020.6 15.9 NW 17.4 0.0 0.2
21:31 10.2 10.1 99 1020.7 15.2 SW 17.4 0.0 0.2
21:32 10.2 10.1 99 1020.8 13.0 NNE 17.4 0.0 0.2
21:33 10.2 10.1 99 1020.7 12.1 SE 17.4 0.0 0.2
21:34 10.2 10.1 99 1020.7 17.4 WNW 17.4 0.0 0.2
21:35 10.2 10.1 99 1020.8 19.7 SW 19.7 0.0 0.2
21:36 10.2 10.1 99 1020.6 19.0 SW 19.7 0.0 0.2
21:37 10.2 10.1 99 1020.7 13.0 NW 19.7 0.0 0.2
21:38 10.2 10.1 99 1020.7 15.2 NW 19.7 0.0 0.2
21:39 10.2 10.1 99 1020.8 15.9 WSW 19.7 0.0 0.2
21:40 10.2 10.1 99 1020.7 15.9 NW 19.7 0.0 0.2
21:41 10.2 10.1 99 1020.6 21.3 NW 21.3 0.0 0.2
21:42 10.2 10.1 99 1020.6 17.4 W 21.3 0.0 0.2
21:43 10.2 10.1 99 1020.5 14.5 SW 21.3 0.0 0.2
21:44 10.2 10.1 99 1020.6 9.2 NW 23.5 0.0 0.2
21:45 10.2 10.1 99 1020.6 9.2 NW 23.5 0.0 0.2
21:46 10.2 10.1 99 1020.6 13.0 NW 23.5 0.0 0.2
21:47 10.2 10.1 99 1020.5 15.2 SW 23.5 0.0 0.2
21:48 10.2 10.1 99 1020.5 9.8 W 23.5 0.0 0.2
21:49 10.2 10.1 99 1020.7 12.1 NW 23.5 0.0 0.2
21:50 10.2 10.1 99 1020.7 9.2 NW 23.5 0.0 0.2
21:51 10.2 10.1 99 1020.7 9.2 NW 23.5 0.0 0.2
21:52 10.2 10.1 99 1020.7 9.8 NW 23.5 0.0 0.2
21:53 10.2 10.1 99 1020.8 10.7 SW 23.5 0.0 0.2
21:54 10.2 10.1 99 1020.8 10.7 W 23.5 0.0 0.2
21:55 10.2 10.1 99 1020.8 11.4 SW 15.2 0.0 0.2
21:56 10.2 10.1 99 1020.8 9.2 SW 15.2 0.0 0.2
21:57 10.2 10.1 99 1020.8 16.8 W 17.4 0.0 0.2
21:58 10.2 10.1 99 1020.8 9.2 WSW 17.4 0.0 0.2
21:59 10.2 10.1 99 1020.8 15.2 SW 17.4 0.0 0.2
22:00 10.2 10.1 99 1020.9 15.9 W 17.4 0.0 0.2
22:01 10.2 10.1 99 1020.8 13.0 E 17.4 0.0 0.2
22:02 10.2 10.1 99 1021.1 18.3 E 18.3 0.0 0.2
22:03 10.2 10.1 99 1020.9 13.6 SW 18.3 0.0 0.2
22:04 10.2 10.1 99 1021.0 9.8 N 18.3 0.0 0.2
22:05 10.2 10.1 99 1020.9 13.6 SW 18.3 0.0 0.2
22:06 10.2 10.1 99 1021.0 14.5 NW 18.3 0.0 0.2
22:07 10.2 10.1 99 1020.9 12.1 SW 18.3 0.0 0.2
22:08 10.2 10.1 99 1021.0 15.9 NW 18.3 0.0 0.2
22:09 10.2 10.1 99 1020.8 15.9 SE 18.3 0.0 0.2
22:10 10.2 10.1 99 1021.0 11.4 NW 18.3 0.0 0.2
22:11 10.1 10.0 99 1020.9 17.4 NW 18.3 0.0 0.2
22:12 10.1 10.0 99 1020.9 16.8 N 18.3 0.0 0.2
22:13 10.1 10.0 99 1021.0 14.5 NW 17.4 0.0 0.2
22:14 10.1 10.0 99 1021.0 15.9 SE 17.4 0.0 0.2
22:15 10.1 10.0 99 1020.9 13.6 NW 17.4 0.0 0.2
22:16 10.1 10.0 99 1020.9 13.6 NW 17.4 0.0 0.2
22:17 10.1 10.0 99 1021.1 10.7 NW 17.4 0.0 0.2
22:18 10.1 10.0 99 1021.1 13.0 SW 17.4 0.0 0.2
22:19 10.0 9.9 99 1021.0 18.3 NW 19.0 0.0 0.2
22:21 10.0 9.9 99 1021.2 19.0 NW 20.6 0.0 0.2
22:22 10.0 9.9 99 1021.1 18.3 NW 20.6 0.0 0.2
22:23 10.0 9.9 99 1021.3 16.8 NW 20.6 0.0 0.2
22:24 10.0 9.9 99 1021.3 11.4 WSW 20.6 0.0 0.2
22:25 10.0 9.9 99 1021.0 13.6 W 20.6 0.0 0.2
22:26 10.0 9.9 99 1021.1 15.9 W 20.6 0.0 0.2
22:27 10.0 9.9 99 1021.1 19.0 SW 20.6 0.0 0.2
22:28 10.0 9.9 99 1021.1 15.2 NW 20.6 0.0 0.2
22:29 10.0 9.9 99 1021.1 16.8 NW 20.6 0.0 0.2
22:30 10.0 9.7 98 1021.1 13.0 SW 20.6 0.0 0.2
22:31 10.0 9.7 98 1021.2 15.9 W 19.0 0.0 0.2
22:32 10.0 9.7 98 1021.2 12.1 W 19.0 0.0 0.2
22:33 10.0 9.7 98 1021.0 16.8 NW 19.0 0.0 0.2
22:34 10.0 9.7 98 1021.2 19.0 NW 19.0 0.0 0.2
22:35 10.0 9.7 98 1021.4 16.8 W 19.0 0.0 0.2
22:36 9.9 9.6 98 1021.2 12.1 SW 19.0 0.0 0.2
22:37 10.0 9.7 98 1021.4 15.9 W 19.0 0.0 0.2
22:38 10.0 9.7 98 1021.4 13.0 SW 19.0 0.0 0.2
22:39 10.0 9.7 98 1021.6 13.0 W 19.0 0.0 0.2
22:40 10.0 9.7 98 1021.4 9.8 W 19.0 0.0 0.2
22:41 10.0 9.7 98 1021.5 13.6 NW 19.0 0.0 0.2
22:42 9.9 9.6 98 1021.4 16.8 NW 19.0 0.0 0.2
22:43 9.9 9.6 98 1021.3 11.4 NW 19.0 0.0 0.2
22:44 9.9 9.4 97 1021.3 9.2 W 16.8 0.0 0.2
22:45 9.9 9.4 97 1021.4 13.6 NW 16.8 0.0 0.2
22:47 9.9 9.4 97 1021.3 15.9 N 16.8 0.0 0.2
22:48 9.9 9.4 97 1021.2 12.1 W 16.8 0.0 0.2
22:49 9.9 9.4 97 1021.1 7.6 W 16.8 0.0 0.2
22:50 9.8 9.3 97 1021.3 10.7 N 16.8 0.0 0.2
22:51 9.8 9.3 97 1021.4 11.4 NW 16.8 0.0 0.2
22:52 9.8 9.3 97 1021.4 9.2 NW 16.8 0.0 0.2
22:53 9.8 9.3 97 1021.4 15.9 NW 15.9 0.0 0.2
22:54 9.8 9.3 97 1021.6 19.7 W 19.7 0.0 0.2
22:55 9.7 9.2 97 1021.4 16.8 N 19.7 0.0 0.2
22:56 9.7 9.2 97 1021.6 15.9 NE 19.7 0.0 0.2
22:57 9.7 9.2 97 1021.5 11.4 NW 19.7 0.0 0.2
22:58 9.7 9.2 97 1021.4 15.9 E 19.7 0.0 0.2
22:59 9.7 9.1 96 1021.6 18.3 W 19.7 0.0 0.2
23:00 9.7 9.1 96 1021.6 9.8 N 19.7 0.0 0.2
23:01 9.7 9.1 96 1021.5 9.8 N 19.7 0.0 0.2
23:02 9.7 9.1 96 1021.4 13.0 W 19.7 0.0 0.2
23:03 9.6 9.0 96 1021.4 11.4 NW 19.7 0.0 0.2
23:04 9.6 9.0 96 1021.5 12.1 SW 19.7 0.0 0.2
23:05 9.6 9.0 96 1021.3 9.8 SW 18.3 0.0 0.2
23:06 9.6 9.0 96 1021.5 14.5 N 18.3 0.0 0.2
23:07 9.6 9.0 96 1021.5 11.4 NW 18.3 0.0 0.2
23:08 9.6 9.0 96 1021.4 18.3 NW 18.3 0.0 0.2
23:09 9.6 9.0 96 1021.5 11.4 WNW 18.3 0.0 0.2
23:10 9.6 9.0 96 1021.5 11.4 WNW 18.3 0.0 0.2
23:11 9.5 8.9 96 1021.7 8.3 S 18.3 0.0 0.2
23:12 9.5 8.9 96 1021.8 11.4 SW 18.3 0.0 0.2
23:13 9.5 8.9 96 1021.6 13.6 NW 18.3 0.0 0.2
23:14 9.5 8.9 96 1021.7 13.0 NW 18.3 0.0 0.2
23:15 9.5 8.9 96 1021.7 12.1 NW 18.3 0.0 0.2
23:16 9.5 8.7 95 1021.7 9.8 NW 18.3 0.0 0.2
23:17 9.5 8.7 95 1021.7 6.9 NW 18.3 0.0 0.2
23:18 9.5 8.7 95 1021.7 12.1 NW 18.3 0.0 0.2
23:19 9.5 8.7 95 1021.6 11.4 NW 15.2 0.0 0.2
23:20 9.6 8.8 95 1021.5 13.6 NW 15.2 0.0 0.2
23:21 9.6 8.8 95 1021.4 13.0 NW 15.2 0.0 0.2
23:22 9.6 8.8 95 1021.6 9.2 N 15.2 0.0 0.2
23:23 9.6 8.8 95 1021.7 13.6 NW 15.2 0.0 0.2
23:25 9.6 8.8 95 1021.7 9.8 SW 17.4 0.0 0.2
23:26 9.6 8.8 95 1021.7 13.0 NW 17.4 0.0 0.2
23:27 9.6 8.8 95 1021.6 9.2 NW 17.4 0.0 0.2
23:28 9.6 8.8 95 1021.8 13.0 NW 17.4 0.0 0.2
23:29 9.6 8.8 95 1021.9 10.7 N 18.3 0.0 0.2
23:30 9.6 8.8 95 1021.8 6.9 SW 18.3 0.0 0.2
23:31 9.6 8.8 95 1021.8 5.4 NW 18.3 0.0 0.2
23:32 9.6 8.8 95 1021.8 8.3 W 18.3 0.0 0.2
23:33 9.6 8.8 95 1021.8 7.6 NW 18.3 0.0 0.2
23:34 9.6 8.8 95 1021.9 6.9 N 18.3 0.0 0.2
23:35 9.6 8.8 95 1021.8 6.9 WNW 18.3 0.0 0.2
23:36 9.6 8.8 95 1021.9 6.0 NW 18.3 0.0 0.2
23:37 9.5 8.7 95 1021.8 5.4 N 18.3 0.0 0.2
23:38 9.5 8.7 95 1021.8 7.6 N 18.3 0.0 0.2
23:39 9.5 8.7 95 1021.9 7.6 WNW 18.3 0.0 0.2
23:40 9.5 8.6 94 1022.0 11.4 NW 13.0 0.0 0.2
23:41 9.5 8.6 94 1021.9 6.9 SW 13.0 0.0 0.2
23:42 9.5 8.6 94 1022.0 8.3 NW 13.0 0.0 0.2
23:43 9.5 8.6 94 1022.0 12.1 N 13.0 0.0 0.2
23:44 9.5 8.6 94 1022.0 9.8 SW 12.1 0.0 0.2
23:45 9.5 8.6 94 1022.1 4.5 NW 12.1 0.0 0.2
23:46 9.5 8.6 94 1022.0 9.2 N 12.1 0.0 0.2
23:47 9.4 8.5 94 1022.0 9.2 W 12.1 0.0 0.2
23:49 9.4 8.5 94 1022.0 3.8 N 13.0 0.0 0.2
23:50 9.4 8.3 93 1022.2 10.7 NW 13.0 0.0 0.2
23:51 9.4 8.3 93 1022.1 10.7 SW 13.0 0.0 0.2
23:52 9.4 8.3 93 1022.1 10.7 N 13.0 0.0 0.2
23:53 9.4 8.3 93 1022.2 5.4 SW 13.0 0.0 0.2
23:54 9.3 8.2 93 1022.1 7.6 NW 13.0 0.0 0.2
23:55 9.3 8.2 93 1022.1 13.0 N 13.0 0.0 0.2
23:56 9.3 8.2 93 1022.1 6.0 NW 13.0 0.0 0.2
23:57 9.3 8.2 93 1022.1 7.6 NE 13.0 0.0 0.2
23:58 9.3 8.1 92 1022.1 8.3 NW 13.0 0.0 0.2
23:59 9.3 8.1 92 1022.1 8.3 NW 13.0 0.0 0.2

UK - WEATHER STATION TOPSITES - UK World Weather Websites

This is a private weather station, never base important decisions or events on data from this weather station. Although every effort has been made to make the data as accurate as possible it does not meet MetOffice standards. It is proved as a guide of local weather conditions. We accept no liability for any loss which may arise from use of the data.

Copyright © Carnkie Weather 2009 - 2018.